Wetterdaten: Sonntag, 31.12.2017
Datum Zeit Temp. Aussen Temp. o. S. +5cm Feuchte Auss BlattFeu 1 Luftdruck Regen Sonnenschein Regendauer Solar Windben Empfang
31.12.2017 00:00 11,9 C 11,7 C 10,6 C 89 % 0 lf 1003,5 hPa 0,0 l/m 0 min 0 min 0 W/m 22,5 km/h (4 Bft) 97,87 %
31.12.2017 00:02 11,9 C 11,7 C 10,0 C 89 % 0 lf 1003,5 hPa 0,0 l/m 0 min 0 min 0 W/m 22,5 km/h (4 Bft) 97,50 %
31.12.2017 00:04 11,9 C 11,7 C 10,0 C 89 % 0 lf 1003,5 hPa 0,0 l/m 0 min 0 min 0 W/m 24,8 km/h (4 Bft) 97,83 %
31.12.2017 00:07 11,9 C 11,7 C 10,0 C 89 % 0 lf 1003,5 hPa 0,0 l/m 0 min 0 min 0 W/m 33,8 km/h (5 Bft) 97,83 %
31.12.2017 00:09 11,9 C 11,7 C 10,6 C 88 % 0 lf 1003,5 hPa 0,0 l/m 0 min 0 min 0 W/m 33,8 km/h (5 Bft) 98,29 %
31.12.2017 00:10 11,9 C 11,7 C 10,0 C 89 % 0 lf 1003,5 hPa 0,0 l/m 0 min 0 min 0 W/m 18,0 km/h (3 Bft) 100,00 %
31.12.2017 00:12 11,9 C 11,7 C 10,0 C 89 % 0 lf 1003,6 hPa 0,0 l/m 0 min 0 min 0 W/m 31,5 km/h (5 Bft) 100,00 %
31.12.2017 00:14 11,9 C 11,7 C 10,0 C 89 % 0 lf 1003,5 hPa 0,0 l/m 0 min 0 min 0 W/m 22,5 km/h (4 Bft) 100,00 %
31.12.2017 00:16 11,9 C 11,7 C 10,0 C 89 % 0 lf 1003,5 hPa 0,0 l/m 0 min 0 min 0 W/m 22,5 km/h (4 Bft) 100,00 %
31.12.2017 00:18 11,9 C 11,7 C 10,0 C 89 % 0 lf 1003,5 hPa 0,0 l/m 0 min 0 min 0 W/m 24,8 km/h (4 Bft) 100,00 %
31.12.2017 00:20 11,9 C 11,7 C 10,0 C 88 % 0 lf 1003,5 hPa 0,0 l/m 0 min 0 min 0 W/m 24,8 km/h (4 Bft) 100,00 %
31.12.2017 00:22 11,9 C 11,7 C 10,0 C 88 % 0 lf 1003,5 hPa 0,0 l/m 0 min 0 min 0 W/m 20,3 km/h (4 Bft) 100,00 %
31.12.2017 00:24 11,9 C 11,7 C 10,0 C 88 % 0 lf 1003,6 hPa 0,0 l/m 0 min 0 min 0 W/m 20,3 km/h (4 Bft) 100,00 %
31.12.2017 00:26 11,9 C 11,7 C 10,0 C 88 % 0 lf 1003,6 hPa 0,0 l/m 0 min 0 min 0 W/m 27,0 km/h (4 Bft) 100,00 %
31.12.2017 00:28 11,9 C 11,7 C 10,0 C 88 % 0 lf 1003,7 hPa 0,0 l/m 0 min 0 min 0 W/m 27,0 km/h (4 Bft) 100,00 %
31.12.2017 00:30 11,9 C 11,7 C 10,0 C 88 % 0 lf 1003,7 hPa 0,0 l/m 0 min 0 min 0 W/m 27,0 km/h (4 Bft) 97,87 %
31.12.2017 00:32 11,9 C 11,7 C 10,0 C 88 % 0 lf 1003,6 hPa 0,0 l/m 0 min 0 min 0 W/m 22,5 km/h (4 Bft) 97,87 %
31.12.2017 00:34 11,9 C 11,7 C 10,0 C 88 % 0 lf 1003,6 hPa 0,0 l/m 0 min 0 min 0 W/m 22,5 km/h (4 Bft) 100,00 %
31.12.2017 00:36 11,9 C 11,7 C 10,0 C 88 % 0 lf 1003,7 hPa 0,0 l/m 0 min 0 min 0 W/m 20,3 km/h (4 Bft) 100,00 %
31.12.2017 00:38 11,9 C 11,7 C 10,0 C 88 % 0 lf 1003,8 hPa 0,0 l/m 0 min 0 min 0 W/m 20,3 km/h (4 Bft) 97,83 %
31.12.2017 00:40 11,8 C 11,7 C 10,0 C 88 % 0 lf 1003,7 hPa 0,0 l/m 0 min 0 min 0 W/m 31,5 km/h (5 Bft) 100,00 %
31.12.2017 00:42 11,9 C 11,7 C 10,0 C 88 % 0 lf 1003,8 hPa 0,0 l/m 0 min 0 min 0 W/m 20,3 km/h (4 Bft) 100,00 %
31.12.2017 00:44 11,8 C 11,7 C 10,0 C 88 % 0 lf 1003,7 hPa 0,0 l/m 0 min 0 min 0 W/m 15,8 km/h (3 Bft) 100,00 %
31.12.2017 00:46 11,8 C 11,7 C 10,0 C 88 % 0 lf 1003,8 hPa 0,0 l/m 0 min 0 min 0 W/m 20,3 km/h (4 Bft) 100,00 %
31.12.2017 00:48 11,8 C 11,7 C 10,0 C 88 % 0 lf 1003,7 hPa 0,0 l/m 0 min 0 min 0 W/m 18,0 km/h (3 Bft) 97,87 %
31.12.2017 00:50 11,8 C 11,7 C 10,0 C 88 % 0 lf 1003,8 hPa 0,0 l/m 0 min 0 min 0 W/m 20,3 km/h (4 Bft) 93,48 %
31.12.2017 00:52 11,8 C 11,7 C 10,0 C 89 % 0 lf 1003,7 hPa 0,0 l/m 0 min 0 min 0 W/m 18,0 km/h (3 Bft) 97,87 %
31.12.2017 00:54 11,8 C 11,7 C 10,0 C 89 % 0 lf 1003,7 hPa 0,0 l/m 0 min 0 min 0 W/m 18,0 km/h (3 Bft) 100,00 %
31.12.2017 00:56 11,8 C 11,7 C 10,0 C 89 % 0 lf 1003,7 hPa 0,0 l/m 0 min 0 min 0 W/m 18,0 km/h (3 Bft) 100,00 %
31.12.2017 00:58 11,8 C 11,7 C 10,0 C 89 % 0 lf 1003,7 hPa 0,0 l/m 0 min 0 min 0 W/m 15,8 km/h (3 Bft) 95,74 %
31.12.2017 01:00 11,8 C 11,7 C 10,0 C 89 % 1 lf 1003,8 hPa 0,0 l/m 0 min 0 min 0 W/m 18,0 km/h (3 Bft) 95,74 %
31.12.2017 01:02 11,8 C 11,7 C 10,0 C 89 % 1 lf 1003,8 hPa 0,0 l/m 0 min 0 min 0 W/m 24,8 km/h (4 Bft) 95,65 %
31.12.2017 01:04 11,8 C 11,7 C 10,0 C 89 % 3 lf 1003,7 hPa 0,0 l/m 0 min 2 min 0 W/m 15,8 km/h (3 Bft) 95,74 %
31.12.2017 01:06 11,8 C 11,7 C 10,0 C 89 % 2 lf 1003,8 hPa 0,0 l/m 0 min 2 min 0 W/m 20,3 km/h (4 Bft) 95,74 %
31.12.2017 01:08 11,8 C 11,7 C 10,0 C 89 % 1 lf 1003,9 hPa 0,0 l/m 0 min 0 min 0 W/m 18,0 km/h (3 Bft) 95,74 %
31.12.2017 01:10 11,7 C 11,7 C 10,0 C 89 % 4 lf 1003,9 hPa 0,0 l/m 0 min 2 min 0 W/m 15,8 km/h (3 Bft) 95,74 %
31.12.2017 01:12 11,7 C 11,1 C 9,4 C 89 % 9 lf 1003,8 hPa 0,0 l/m 0 min 2 min 0 W/m 15,8 km/h (3 Bft) 95,65 %
31.12.2017 01:14 11,7 C 11,1 C 9,4 C 89 % 11 lf 1003,8 hPa 0,0 l/m 0 min 2 min 0 W/m 15,8 km/h (3 Bft) 95,74 %
31.12.2017 01:16 11,7 C 11,1 C 9,4 C 89 % 12 lf 1003,7 hPa 0,0 l/m 0 min 2 min 0 W/m 13,5 km/h (3 Bft) 95,74 %
31.12.2017 01:18 11,7 C 11,1 C 9,4 C 90 % 14 lf 1003,7 hPa 0,0 l/m 0 min 2 min 0 W/m 13,5 km/h (3 Bft) 95,74 %
31.12.2017 01:20 11,7 C 10,6 C 8,9 C 89 % 15 lf 1003,6 hPa 0,0 l/m 0 min 2 min 0 W/m 20,3 km/h (4 Bft) 95,74 %
31.12.2017 01:22 11,7 C 10,6 C 8,9 C 90 % 15 lf 1003,6 hPa 0,0 l/m 0 min 2 min 0 W/m 13,5 km/h (3 Bft) 95,74 %
31.12.2017 01:24 11,7 C 10,6 C 8,9 C 90 % 15 lf 1003,6 hPa 0,0 l/m 0 min 2 min 0 W/m 15,8 km/h (3 Bft) 95,65 %
31.12.2017 01:26 11,7 C 10,6 C 8,9 C 90 % 15 lf 1003,5 hPa 0,0 l/m 0 min 2 min 0 W/m 18,0 km/h (3 Bft) 95,74 %
31.12.2017 01:28 11,6 C 10,6 C 8,9 C 90 % 15 lf 1003,5 hPa 0,0 l/m 0 min 2 min 0 W/m 15,8 km/h (3 Bft) 93,62 %
31.12.2017 01:30 11,6 C 10,0 C 8,9 C 90 % 15 lf 1003,5 hPa 0,0 l/m 0 min 2 min 0 W/m 15,8 km/h (3 Bft) 95,74 %
31.12.2017 01:32 11,6 C 10,0 C 8,9 C 90 % 15 lf 1003,7 hPa 0,0 l/m 0 min 2 min 0 W/m 20,3 km/h (4 Bft) 95,74 %
31.12.2017 01:34 11,6 C 10,6 C 8,9 C 91 % 15 lf 1003,8 hPa 0,0 l/m 0 min 2 min 0 W/m 29,3 km/h (5 Bft) 95,74 %
31.12.2017 01:36 11,6 C 10,6 C 8,9 C 91 % 15 lf 1003,7 hPa 0,0 l/m 0 min 2 min 0 W/m 20,3 km/h (4 Bft) 95,65 %
31.12.2017 01:38 11,5 C 10,6 C 8,9 C 91 % 15 lf 1003,7 hPa 0,0 l/m 0 min 2 min 0 W/m 18,0 km/h (3 Bft) 97,87 %
31.12.2017 01:40 11,5 C 10,6 C 8,9 C 91 % 15 lf 1003,7 hPa 0,2 l/m 0 min 2 min 0 W/m 18,0 km/h (3 Bft) 95,74 %
31.12.2017 01:42 11,5 C 10,6 C 8,9 C 91 % 15 lf 1003,6 hPa 0,0 l/m 0 min 2 min 0 W/m 15,8 km/h (3 Bft) 93,62 %
31.12.2017 01:44 11,4 C 10,6 C 8,9 C 91 % 15 lf 1003,7 hPa 0,0 l/m 0 min 2 min 0 W/m 22,5 km/h (4 Bft) 95,74 %
31.12.2017 01:46 11,4 C 10,0 C 8,9 C 91 % 15 lf 1003,6 hPa 0,0 l/m 0 min 2 min 0 W/m 18,0 km/h (3 Bft) 97,87 %
31.12.2017 01:48 11,4 C 10,0 C 8,9 C 92 % 15 lf 1003,6 hPa 0,0 l/m 0 min 2 min 0 W/m 24,8 km/h (4 Bft) 100,00 %
31.12.2017 01:50 11,4 C 10,0 C 8,9 C 92 % 15 lf 1003,7 hPa 0,0 l/m 0 min 2 min 0 W/m 20,3 km/h (4 Bft) 100,00 %
31.12.2017 01:52 11,4 C 10,0 C 8,9 C 92 % 15 lf 1003,6 hPa 0,0 l/m 0 min 2 min 0 W/m 15,8 km/h (3 Bft) 97,87 %
31.12.2017 01:54 11,4 C 10,0 C 8,9 C 92 % 15 lf 1003,6 hPa 0,0 l/m 0 min 2 min 0 W/m 15,8 km/h (3 Bft) 97,87 %
31.12.2017 01:56 11,3 C 10,0 C 8,9 C 92 % 15 lf 1003,5 hPa 0,0 l/m 0 min 2 min 0 W/m 18,0 km/h (3 Bft) 97,87 %
31.12.2017 01:58 11,3 C 10,0 C 8,9 C 92 % 15 lf 1003,5 hPa 0,2 l/m 0 min 2 min 0 W/m 18,0 km/h (3 Bft) 97,87 %
31.12.2017 02:00 11,3 C 10,0 C 8,9 C 92 % 15 lf 1003,5 hPa 0,0 l/m 0 min 2 min 0 W/m 18,0 km/h (3 Bft) 97,83 %
31.12.2017 02:02 11,3 C 10,0 C 8,9 C 93 % 15 lf 1003,5 hPa 0,0 l/m 0 min 2 min 0 W/m 15,8 km/h (3 Bft) 97,87 %
31.12.2017 02:04 11,2 C 10,0 C 8,9 C 93 % 15 lf 1003,6 hPa 0,0 l/m 0 min 2 min 0 W/m 20,3 km/h (4 Bft) 93,62 %
31.12.2017 02:06 11,2 C 10,0 C 8,9 C 93 % 15 lf 1003,5 hPa 0,0 l/m 0 min 2 min 0 W/m 22,5 km/h (4 Bft) 95,74 %
31.12.2017 02:08 11,2 C 10,0 C 8,9 C 93 % 15 lf 1003,6 hPa 0,2 l/m 0 min 2 min 0 W/m 15,8 km/h (3 Bft) 97,87 %
31.12.2017 02:10 11,2 C 10,0 C 8,9 C 93 % 15 lf 1003,5 hPa 0,0 l/m 0 min 2 min 0 W/m 11,3 km/h (2 Bft) 95,74 %
31.12.2017 02:12 11,1 C 10,0 C 8,9 C 93 % 15 lf 1003,6 hPa 0,0 l/m 0 min 2 min 0 W/m 15,8 km/h (3 Bft) 97,83 %
31.12.2017 02:14 11,1 C 10,0 C 8,9 C 93 % 15 lf 1003,5 hPa 0,0 l/m 0 min 2 min 0 W/m 15,8 km/h (3 Bft) 97,87 %
31.12.2017 02:16 11,1 C 10,0 C 8,9 C 94 % 15 lf 1003,5 hPa 0,2 l/m 0 min 2 min 0 W/m 11,3 km/h (2 Bft) 95,74 %
31.12.2017 02:18 11,1 C 10,0 C 8,9 C 94 % 15 lf 1003,4 hPa 0,0 l/m 0 min 2 min 0 W/m 15,8 km/h (3 Bft) 95,74 %
31.12.2017 02:20 11,1 C 10,0 C 8,9 C 94 % 15 lf 1003,3 hPa 0,0 l/m 0 min 2 min 0 W/m 13,5 km/h (3 Bft) 97,87 %
31.12.2017 02:22 11,0 C 10,0 C 8,9 C 94 % 15 lf 1003,4 hPa 0,0 l/m 0 min 2 min 0 W/m 15,8 km/h (3 Bft) 95,65 %
31.12.2017 02:24 11,0 C 10,0 C 8,9 C 94 % 15 lf 1003,4 hPa 0,0 l/m 0 min 2 min 0 W/m 18,0 km/h (3 Bft) 97,87 %
31.12.2017 02:26 11,0 C 10,0 C 8,9 C 94 % 15 lf 1003,4 hPa 0,0 l/m 0 min 2 min 0 W/m 15,8 km/h (3 Bft) 96,30 %
31.12.2017 02:28 10,9 C 10,0 C 8,9 C 94 % 15 lf 1003,4 hPa 0,2 l/m 0 min 2 min 0 W/m 18,0 km/h (3 Bft) 95,74 %
31.12.2017 02:30 10,9 C 10,0 C 8,9 C 94 % 15 lf 1003,4 hPa 0,0 l/m 0 min 2 min 0 W/m 18,0 km/h (3 Bft) 97,87 %
31.12.2017 02:32 10,9 C 10,0 C 8,9 C 94 % 15 lf 1003,4 hPa 0,0 l/m 0 min 2 min 0 W/m 15,8 km/h (3 Bft) 97,83 %
31.12.2017 02:34 10,8 C 10,0 C 8,9 C 94 % 15 lf 1003,4 hPa 0,0 l/m 0 min 2 min 0 W/m 11,3 km/h (2 Bft) 97,87 %
31.12.2017 02:36 10,8 C 10,0 C 8,9 C 95 % 15 lf 1003,4 hPa 0,0 l/m 0 min 2 min 0 W/m 18,0 km/h (3 Bft) 95,74 %
31.12.2017 02:38 10,8 C 10,0 C 8,9 C 95 % 15 lf 1003,5 hPa 0,0 l/m 0 min 2 min 0 W/m 31,5 km/h (5 Bft) 93,62 %
31.12.2017 02:40 10,8 C 10,0 C 8,9 C 95 % 15 lf 1003,4 hPa 0,2 l/m 0 min 2 min 0 W/m 22,5 km/h (4 Bft) 97,87 %
31.12.2017 02:42 10,7 C 9,4 C 8,9 C 95 % 15 lf 1003,3 hPa 0,0 l/m 0 min 2 min 0 W/m 27,0 km/h (4 Bft) 95,65 %
31.12.2017 02:44 10,7 C 9,4 C 8,9 C 95 % 15 lf 1003,2 hPa 0,0 l/m 0 min 2 min 0 W/m 15,8 km/h (3 Bft) 97,87 %
31.12.2017 02:46 10,7 C 9,4 C 8,9 C 95 % 15 lf 1003,3 hPa 0,0 l/m 0 min 2 min 0 W/m 24,8 km/h (4 Bft) 97,87 %
31.12.2017 02:48 10,7 C 9,4 C 8,3 C 95 % 15 lf 1003,3 hPa 0,0 l/m 0 min 2 min 0 W/m 20,3 km/h (4 Bft) 95,74 %
31.12.2017 02:50 10,6 C 9,4 C 8,3 C 95 % 15 lf 1003,3 hPa 0,0 l/m 0 min 2 min 0 W/m 22,5 km/h (4 Bft) 97,87 %
31.12.2017 02:52 10,6 C 9,4 C 8,3 C 95 % 15 lf 1003,2 hPa 0,0 l/m 0 min 2 min 0 W/m 18,0 km/h (3 Bft) 93,62 %
31.12.2017 02:54 10,6 C 9,4 C 8,3 C 95 % 15 lf 1003,3 hPa 0,2 l/m 0 min 2 min 0 W/m 22,5 km/h (4 Bft) 95,65 %
31.12.2017 02:56 10,5 C 9,4 C 8,3 C 95 % 15 lf 1003,2 hPa 0,0 l/m 0 min 2 min 0 W/m 15,8 km/h (3 Bft) 93,62 %
31.12.2017 02:58 10,5 C 9,4 C 8,3 C 95 % 15 lf 1003,3 hPa 0,0 l/m 0 min 2 min 0 W/m 24,8 km/h (4 Bft) 91,49 %
31.12.2017 03:00 10,4 C 9,4 C 8,3 C 95 % 15 lf 1003,2 hPa 0,2 l/m 0 min 2 min 0 W/m 22,5 km/h (4 Bft) 95,74 %
31.12.2017 03:02 10,4 C 9,4 C 8,3 C 95 % 15 lf 1003,1 hPa 0,0 l/m 0 min 2 min 0 W/m 20,3 km/h (4 Bft) 95,74 %
31.12.2017 03:04 10,4 C 9,4 C 8,3 C 95 % 15 lf 1003,2 hPa 0,0 l/m 0 min 2 min 0 W/m 24,8 km/h (4 Bft) 95,12 %
31.12.2017 03:06 10,4 C 9,4 C 8,3 C 95 % 15 lf 1003,3 hPa 0,0 l/m 0 min 2 min 0 W/m 18,0 km/h (3 Bft) 95,74 %
31.12.2017 03:08 10,3 C 9,4 C 8,3 C 95 % 15 lf 1003,3 hPa 0,2 l/m 0 min 2 min 0 W/m 18,0 km/h (3 Bft) 93,62 %
31.12.2017 03:10 10,3 C 9,4 C 8,3 C 96 % 15 lf 1003,2 hPa 0,0 l/m 0 min 2 min 0 W/m 15,8 km/h (3 Bft) 95,65 %
31.12.2017 03:12 10,2 C 9,4 C 8,3 C 96 % 15 lf 1003,2 hPa 0,0 l/m 0 min 2 min 0 W/m 15,8 km/h (3 Bft) 95,74 %
31.12.2017 03:14 10,2 C 9,4 C 8,3 C 96 % 15 lf 1003,1 hPa 0,0 l/m 0 min 2 min 0 W/m 18,0 km/h (3 Bft) 95,74 %
31.12.2017 03:16 10,2 C 9,4 C 8,3 C 96 % 15 lf 1003,1 hPa 0,2 l/m 0 min 2 min 0 W/m 13,5 km/h (3 Bft) 93,62 %
31.12.2017 03:18 10,2 C 9,4 C 8,3 C 96 % 15 lf 1003,1 hPa 0,0 l/m 0 min 2 min 0 W/m 13,5 km/h (3 Bft) 93,62 %
31.12.2017 03:20 10,2 C 9,4 C 8,3 C 96 % 15 lf 1003,0 hPa 0,0 l/m 0 min 2 min 0 W/m 13,5 km/h (3 Bft) 93,62 %
31.12.2017 03:22 10,1 C 9,4 C 8,3 C 96 % 15 lf 1003,1 hPa 0,0 l/m 0 min 2 min 0 W/m 15,8 km/h (3 Bft) 95,35 %
31.12.2017 03:24 10,1 C 9,4 C 8,3 C 96 % 15 lf 1003,1 hPa 0,0 l/m 0 min 2 min 0 W/m 18,0 km/h (3 Bft) 96,00 %
31.12.2017 03:26 10,1 C 9,4 C 8,3 C 96 % 15 lf 1003,0 hPa 0,0 l/m 0 min 2 min 0 W/m 13,5 km/h (3 Bft) 95,74 %
31.12.2017 03:28 10,1 C 9,4 C 8,3 C 96 % 15 lf 1003,0 hPa 0,0 l/m 0 min 2 min 0 W/m 13,5 km/h (3 Bft) 95,74 %
31.12.2017 03:30 10,0 C 9,4 C 8,3 C 96 % 15 lf 1003,0 hPa 0,2 l/m 0 min 2 min 0 W/m 13,5 km/h (3 Bft) 95,74 %
31.12.2017 03:32 10,0 C 8,9 C 8,3 C 96 % 15 lf 1002,9 hPa 0,0 l/m 0 min 2 min 0 W/m 13,5 km/h (3 Bft) 97,83 %
31.12.2017 03:34 9,9 C 8,9 C 8,3 C 96 % 15 lf 1002,9 hPa 0,0 l/m 0 min 2 min 0 W/m 13,5 km/h (3 Bft) 93,62 %
31.12.2017 03:36 9,9 C 8,9 C 8,3 C 96 % 15 lf 1002,8 hPa 0,0 l/m 0 min 2 min 0 W/m 15,8 km/h (3 Bft) 95,74 %
31.12.2017 03:38 9,9 C 8,9 C 8,3 C 96 % 15 lf 1002,7 hPa 0,2 l/m 0 min 2 min 0 W/m 9,0 km/h (2 Bft) 97,87 %
31.12.2017 03:40 9,9 C 8,9 C 7,8 C 96 % 15 lf 1002,6 hPa 0,0 l/m 0 min 2 min 0 W/m 13,5 km/h (3 Bft) 97,87 %
31.12.2017 03:42 9,9 C 8,9 C 7,8 C 96 % 15 lf 1002,6 hPa 0,0 l/m 0 min 2 min 0 W/m 13,5 km/h (3 Bft) 93,62 %
31.12.2017 03:44 9,8 C 8,9 C 7,8 C 96 % 15 lf 1002,6 hPa 0,0 l/m 0 min 2 min 0 W/m 11,3 km/h (2 Bft) 93,48 %
31.12.2017 03:46 9,8 C 8,9 C 7,8 C 96 % 15 lf 1002,6 hPa 0,2 l/m 0 min 2 min 0 W/m 11,3 km/h (2 Bft) 93,62 %
31.12.2017 03:48 9,8 C 8,9 C 7,8 C 96 % 15 lf 1002,5 hPa 0,0 l/m 0 min 2 min 0 W/m 11,3 km/h (2 Bft) 95,74 %
31.12.2017 03:50 9,8 C 8,9 C 7,8 C 96 % 15 lf 1002,4 hPa 0,0 l/m 0 min 2 min 0 W/m 15,8 km/h (3 Bft) 95,74 %
31.12.2017 03:52 9,8 C 8,9 C 7,8 C 96 % 15 lf 1002,5 hPa 0,2 l/m 0 min 2 min 0 W/m 13,5 km/h (3 Bft) 93,62 %
31.12.2017 03:54 9,7 C 8,9 C 7,8 C 96 % 15 lf 1002,4 hPa 0,0 l/m 0 min 2 min 0 W/m 11,3 km/h (2 Bft) 91,84 %
31.12.2017 03:56 9,7 C 8,9 C 7,8 C 96 % 15 lf 1002,4 hPa 0,0 l/m 0 min 2 min 0 W/m 11,3 km/h (2 Bft) 95,74 %
31.12.2017 03:58 9,7 C 8,9 C 7,8 C 96 % 15 lf 1002,4 hPa 0,0 l/m 0 min 2 min 0 W/m 9,0 km/h (2 Bft) 97,87 %
31.12.2017 04:00 9,7 C 8,9 C 7,8 C 96 % 15 lf 1002,4 hPa 0,0 l/m 0 min 2 min 0 W/m 13,5 km/h (3 Bft) 93,62 %
31.12.2017 04:02 9,7 C 8,9 C 7,8 C 96 % 15 lf 1002,4 hPa 0,2 l/m 0 min 2 min 0 W/m 11,3 km/h (2 Bft) 100,00 %
31.12.2017 04:04 9,7 C 8,9 C 7,8 C 96 % 15 lf 1002,4 hPa 0,0 l/m 0 min 2 min 0 W/m 13,5 km/h (3 Bft) 100,00 %
31.12.2017 04:06 9,6 C 8,9 C 7,8 C 96 % 15 lf 1002,4 hPa 0,0 l/m 0 min 2 min 0 W/m 15,8 km/h (3 Bft) 95,65 %
31.12.2017 04:08 9,6 C 8,9 C 7,8 C 96 % 15 lf 1002,4 hPa 0,0 l/m 0 min 2 min 0 W/m 11,3 km/h (2 Bft) 97,87 %
31.12.2017 04:10 9,6 C 8,9 C 7,8 C 96 % 15 lf 1002,4 hPa 0,0 l/m 0 min 2 min 0 W/m 18,0 km/h (3 Bft) 89,36 %
31.12.2017 04:12 9,6 C 8,9 C 7,8 C 97 % 15 lf 1002,4 hPa 0,0 l/m 0 min 2 min 0 W/m 13,5 km/h (3 Bft) 97,87 %
31.12.2017 04:14 9,6 C 8,9 C 7,8 C 97 % 15 lf 1002,4 hPa 0,0 l/m 0 min 2 min 0 W/m 9,0 km/h (2 Bft) 95,74 %
31.12.2017 04:16 9,6 C 8,9 C 7,8 C 96 % 15 lf 1002,4 hPa 0,0 l/m 0 min 2 min 0 W/m 13,5 km/h (3 Bft) 95,74 %
31.12.2017 04:18 9,6 C 8,9 C 7,8 C 96 % 15 lf 1002,3 hPa 0,2 l/m 0 min 2 min 0 W/m 11,3 km/h (2 Bft) 91,30 %
31.12.2017 04:20 9,6 C 8,9 C 7,8 C 96 % 15 lf 1002,3 hPa 0,0 l/m 0 min 2 min 0 W/m 15,8 km/h (3 Bft) 97,87 %
31.12.2017 04:22 9,6 C 8,9 C 7,8 C 97 % 15 lf 1002,3 hPa 0,0 l/m 0 min 2 min 0 W/m 15,8 km/h (3 Bft) 97,87 %
31.12.2017 04:24 9,6 C 8,9 C 7,8 C 97 % 15 lf 1002,3 hPa 0,0 l/m 0 min 2 min 0 W/m 13,5 km/h (3 Bft) 93,62 %
31.12.2017 04:26 9,6 C 8,9 C 7,8 C 97 % 15 lf 1002,2 hPa 0,0 l/m 0 min 2 min 0 W/m 18,0 km/h (3 Bft) 98,00 %
31.12.2017 04:28 9,6 C 8,9 C 7,8 C 97 % 15 lf 1002,2 hPa 0,2 l/m 0 min 2 min 0 W/m 13,5 km/h (3 Bft) 93,48 %
31.12.2017 04:30 9,6 C 8,9 C 7,8 C 97 % 15 lf 1002,2 hPa 0,0 l/m 0 min 2 min 0 W/m 15,8 km/h (3 Bft) 100,00 %
31.12.2017 04:32 9,6 C 8,9 C 8,3 C 97 % 15 lf 1002,2 hPa 0,0 l/m 0 min 2 min 0 W/m 20,3 km/h (4 Bft) 100,00 %
31.12.2017 04:34 9,6 C 9,4 C 8,3 C 97 % 15 lf 1002,1 hPa 0,0 l/m 0 min 2 min 0 W/m 20,3 km/h (4 Bft) 97,87 %
31.12.2017 04:36 9,6 C 9,4 C 8,3 C 97 % 15 lf 1002,2 hPa 0,0 l/m 0 min 2 min 0 W/m 15,8 km/h (3 Bft) 100,00 %
31.12.2017 04:38 9,6 C 9,4 C 8,3 C 97 % 15 lf 1002,2 hPa 0,0 l/m 0 min 2 min 0 W/m 24,8 km/h (4 Bft) 100,00 %
31.12.2017 04:40 9,7 C 9,4 C 8,3 C 97 % 15 lf 1002,2 hPa 0,2 l/m 0 min 2 min 0 W/m 29,3 km/h (5 Bft) 97,83 %
31.12.2017 04:42 9,8 C 9,4 C 8,3 C 97 % 15 lf 1002,2 hPa 0,0 l/m 0 min 2 min 0 W/m 24,8 km/h (4 Bft) 97,87 %
31.12.2017 04:44 9,8 C 10,0 C 8,9 C 97 % 15 lf 1002,2 hPa 0,0 l/m 0 min 2 min 0 W/m 24,8 km/h (4 Bft) 97,87 %
31.12.2017 04:46 10,0 C 10,0 C 8,9 C 97 % 15 lf 1002,2 hPa 0,0 l/m 0 min 2 min 0 W/m 29,3 km/h (5 Bft) 100,00 %
31.12.2017 04:48 10,1 C 10,0 C 8,9 C 97 % 15 lf 1002,1 hPa 0,0 l/m 0 min 2 min 0 W/m 27,0 km/h (4 Bft) 95,74 %
31.12.2017 04:50 10,3 C 10,0 C 8,9 C 98 % 15 lf 1002,0 hPa 0,0 l/m 0 min 2 min 0 W/m 18,0 km/h (3 Bft) 95,74 %
31.12.2017 04:52 10,3 C 10,0 C 9,4 C 98 % 15 lf 1002,0 hPa 0,0 l/m 0 min 2 min 0 W/m 24,8 km/h (4 Bft) 95,65 %
31.12.2017 04:54 10,4 C 10,6 C 9,4 C 98 % 15 lf 1001,9 hPa 0,0 l/m 0 min 2 min 0 W/m 31,5 km/h (5 Bft) 91,49 %
31.12.2017 04:56 10,7 C 10,6 C 9,4 C 98 % 15 lf 1002,0 hPa 0,0 l/m 0 min 2 min 0 W/m 36,0 km/h (5 Bft) 93,62 %
31.12.2017 04:58 10,8 C 10,6 C 9,4 C 98 % 15 lf 1001,9 hPa 0,0 l/m 0 min 2 min 0 W/m 29,3 km/h (5 Bft) 91,49 %
31.12.2017 05:00 10,9 C 10,6 C 9,4 C 98 % 15 lf 1001,9 hPa 0,0 l/m 0 min 2 min 0 W/m 38,3 km/h (5 Bft) 94,29 %
31.12.2017 05:02 11,0 C 11,1 C 10,0 C 98 % 15 lf 1001,9 hPa 0,2 l/m 0 min 2 min 0 W/m 38,3 km/h (5 Bft) 89,58 %
31.12.2017 05:04 11,2 C 11,1 C 10,0 C 98 % 15 lf 1002,0 hPa 0,0 l/m 0 min 2 min 0 W/m 42,8 km/h (6 Bft) 95,74 %
31.12.2017 05:06 11,3 C 11,1 C 10,0 C 98 % 15 lf 1001,9 hPa 0,0 l/m 0 min 2 min 0 W/m 49,6 km/h (6 Bft) 95,65 %
31.12.2017 05:08 11,3 C 11,1 C 10,0 C 98 % 15 lf 1001,9 hPa 0,0 l/m 0 min 2 min 0 W/m 36,0 km/h (5 Bft) 95,74 %
31.12.2017 05:10 11,4 C 11,1 C 10,0 C 98 % 15 lf 1001,9 hPa 0,0 l/m 0 min 2 min 0 W/m 47,3 km/h (6 Bft) 95,74 %
31.12.2017 05:12 11,4 C 11,1 C 10,0 C 98 % 15 lf 1001,9 hPa 0,0 l/m 0 min 2 min 0 W/m 65,3 km/h (8 Bft) 95,74 %
31.12.2017 05:14 11,4 C 11,1 C 10,0 C 98 % 15 lf 1001,8 hPa 0,0 l/m 0 min 2 min 0 W/m 33,8 km/h (5 Bft) 97,87 %
31.12.2017 05:16 11,4 C 11,1 C 10,0 C 98 % 15 lf 1001,8 hPa 0,0 l/m 0 min 2 min 0 W/m 27,0 km/h (4 Bft) 95,74 %
31.12.2017 05:18 11,4 C 11,1 C 10,0 C 98 % 15 lf 1001,9 hPa 0,2 l/m 0 min 2 min 0 W/m 54,1 km/h (7 Bft) 91,49 %
31.12.2017 05:20 11,5 C 11,1 C 10,0 C 98 % 15 lf 1002,0 hPa 0,0 l/m 0 min 2 min 0 W/m 29,3 km/h (5 Bft) 94,83 %
31.12.2017 05:22 11,5 C 11,1 C 10,0 C 98 % 15 lf 1001,9 hPa 0,0 l/m 0 min 2 min 0 W/m 47,3 km/h (6 Bft) 94,29 %
31.12.2017 05:24 11,5 C 11,1 C 10,0 C 98 % 15 lf 1001,9 hPa 0,0 l/m 0 min 2 min 0 W/m 47,3 km/h (6 Bft) 95,74 %
31.12.2017 05:26 11,5 C 11,1 C 10,0 C 98 % 15 lf 1001,9 hPa 0,0 l/m 0 min 2 min 0 W/m 49,6 km/h (6 Bft) 95,74 %
31.12.2017 05:28 11,5 C 11,1 C 10,0 C 98 % 15 lf 1002,0 hPa 0,0 l/m 0 min 2 min 0 W/m 45,1 km/h (6 Bft) 95,74 %
31.12.2017 05:30 11,6 C 11,1 C 10,0 C 98 % 15 lf 1001,9 hPa 0,2 l/m 0 min 2 min 0 W/m 36,0 km/h (5 Bft) 97,83 %
31.12.2017 05:32 11,6 C 11,1 C 10,0 C 98 % 15 lf 1001,9 hPa 0,0 l/m 0 min 2 min 0 W/m 65,3 km/h (8 Bft) 97,87 %
31.12.2017 05:34 11,6 C 11,1 C 10,0 C 98 % 15 lf 1001,8 hPa 0,0 l/m 0 min 2 min 0 W/m 42,8 km/h (6 Bft) 97,87 %
31.12.2017 05:35 11,6 C 11,1 C 10,0 C 98 % 15 lf 1001,9 hPa 0,0 l/m 0 min 1 min 0 W/m 65,3 km/h (8 Bft) 100,00 %
31.12.2017 05:42 11,6 C 11,1 C 10,0 C 98 % 15 lf 1001,7 hPa 0,2 l/m 0 min 5 min 0 W/m 47,3 km/h (6 Bft) 95,35 %
31.12.2017 05:44 11,6 C 11,1 C 10,0 C 98 % 15 lf 1001,8 hPa 0,0 l/m 0 min 2 min 0 W/m 42,8 km/h (6 Bft) 91,49 %
31.12.2017 05:46 11,6 C 11,1 C 10,0 C 98 % 15 lf 1001,7 hPa 0,0 l/m 0 min 2 min 0 W/m 40,6 km/h (6 Bft) 100,00 %
31.12.2017 05:48 11,6 C 11,1 C 10,0 C 98 % 15 lf 1001,7 hPa 0,0 l/m 0 min 2 min 0 W/m 38,3 km/h (5 Bft) 97,87 %
31.12.2017 05:50 11,7 C 11,1 C 10,0 C 98 % 15 lf 1001,8 hPa 0,0 l/m 0 min 2 min 0 W/m 42,8 km/h (6 Bft) 95,74 %
31.12.2017 05:52 11,7 C 11,1 C 10,0 C 98 % 15 lf 1001,9 hPa 0,0 l/m 0 min 2 min 0 W/m 49,6 km/h (6 Bft) 97,87 %
31.12.2017 05:54 11,7 C 11,1 C 10,0 C 98 % 15 lf 1001,8 hPa 0,0 l/m 0 min 2 min 0 W/m 60,8 km/h (7 Bft) 100,00 %
31.12.2017 05:56 11,7 C 11,1 C 10,0 C 98 % 15 lf 1001,9 hPa 0,0 l/m 0 min 2 min 0 W/m 49,6 km/h (6 Bft) 100,00 %
31.12.2017 05:58 11,7 C 11,1 C 10,0 C 98 % 15 lf 1001,7 hPa 0,0 l/m 0 min 2 min 0 W/m 45,1 km/h (6 Bft) 100,00 %
31.12.2017 06:00 11,7 C 11,1 C 10,0 C 98 % 15 lf 1001,8 hPa 0,0 l/m 0 min 2 min 0 W/m 49,6 km/h (6 Bft) 100,00 %
31.12.2017 06:02 11,7 C 11,1 C 10,0 C 98 % 15 lf 1001,8 hPa 0,0 l/m 0 min 2 min 0 W/m 49,6 km/h (6 Bft) 95,74 %
31.12.2017 06:04 11,7 C 11,1 C 10,0 C 98 % 15 lf 1001,9 hPa 0,0 l/m 0 min 2 min 0 W/m 49,6 km/h (6 Bft) 100,00 %
31.12.2017 06:08 11,7 C 11,1 C 10,0 C 97 % 15 lf 1001,7 hPa 0,0 l/m 0 min 4 min 0 W/m 47,3 km/h (6 Bft) 96,88 %
31.12.2017 06:12 11,7 C 11,1 C 9,4 C 97 % 15 lf 1001,7 hPa 0,0 l/m 0 min 0 min 0 W/m 40,6 km/h (6 Bft) 98,80 %
31.12.2017 06:14 11,7 C 11,1 C 9,4 C 97 % 15 lf 1001,7 hPa 0,0 l/m 0 min 2 min 0 W/m 45,1 km/h (6 Bft) 100,00 %
31.12.2017 06:16 11,7 C 11,1 C 10,0 C 97 % 15 lf 1001,7 hPa 0,0 l/m 0 min 2 min 0 W/m 45,1 km/h (6 Bft) 97,87 %
31.12.2017 06:18 11,7 C 11,1 C 10,0 C 97 % 15 lf 1001,8 hPa 0,0 l/m 0 min 2 min 0 W/m 51,8 km/h (7 Bft) 100,00 %
31.12.2017 06:20 11,7 C 11,1 C 10,0 C 97 % 15 lf 1001,6 hPa 0,0 l/m 0 min 2 min 0 W/m 40,6 km/h (6 Bft) 98,28 %
31.12.2017 06:22 11,7 C 11,1 C 10,0 C 97 % 15 lf 1001,8 hPa 0,0 l/m 0 min 2 min 0 W/m 49,6 km/h (6 Bft) 97,14 %
31.12.2017 06:24 11,8 C 11,1 C 10,0 C 97 % 15 lf 1001,7 hPa 0,0 l/m 0 min 2 min 0 W/m 38,3 km/h (5 Bft) 100,00 %
31.12.2017 06:26 11,8 C 11,1 C 10,0 C 96 % 15 lf 1001,7 hPa 0,0 l/m 0 min 2 min 0 W/m 51,8 km/h (7 Bft) 97,87 %
31.12.2017 06:28 11,8 C 11,1 C 10,0 C 97 % 15 lf 1001,7 hPa 0,0 l/m 0 min 2 min 0 W/m 63,1 km/h (8 Bft) 97,87 %
31.12.2017 06:30 11,8 C 11,1 C 10,0 C 96 % 15 lf 1001,8 hPa 0,0 l/m 0 min 2 min 0 W/m 54,1 km/h (7 Bft) 95,74 %
31.12.2017 06:32 11,9 C 11,1 C 10,0 C 96 % 15 lf 1001,6 hPa 0,0 l/m 0 min 2 min 0 W/m 47,3 km/h (6 Bft) 93,48 %
31.12.2017 06:34 11,9 C 11,1 C 10,0 C 96 % 15 lf 1001,6 hPa 0,0 l/m 0 min 2 min 0 W/m 47,3 km/h (6 Bft) 95,74 %
31.12.2017 06:36 11,9 C 11,1 C 9,4 C 96 % 15 lf 1001,6 hPa 0,0 l/m 0 min 2 min 0 W/m 54,1 km/h (7 Bft) 91,49 %
31.12.2017 06:38 12,0 C 11,1 C 9,4 C 95 % 15 lf 1001,6 hPa 0,0 l/m 0 min 2 min 0 W/m 58,6 km/h (7 Bft) 93,62 %
31.12.2017 06:40 12,0 C 11,1 C 9,4 C 95 % 15 lf 1001,7 hPa 0,0 l/m 0 min 2 min 0 W/m 38,3 km/h (5 Bft) 95,74 %
31.12.2017 06:42 12,1 C 11,1 C 9,4 C 94 % 15 lf 1001,7 hPa 0,0 l/m 0 min 2 min 0 W/m 45,1 km/h (6 Bft) 91,49 %
31.12.2017 06:44 12,1 C 11,1 C 10,0 C 94 % 15 lf 1001,7 hPa 0,0 l/m 0 min 2 min 0 W/m 54,1 km/h (7 Bft) 91,30 %
31.12.2017 06:46 12,1 C 11,1 C 10,0 C 94 % 15 lf 1001,4 hPa 0,0 l/m 0 min 2 min 0 W/m 63,1 km/h (8 Bft) 91,49 %
31.12.2017 06:48 12,2 C 11,1 C 10,0 C 93 % 15 lf 1001,5 hPa 0,0 l/m 0 min 2 min 0 W/m 56,3 km/h (7 Bft) 93,62 %
31.12.2017 06:50 12,3 C 11,1 C 10,0 C 93 % 13 lf 1001,7 hPa 0,0 l/m 0 min 2 min 0 W/m 49,6 km/h (6 Bft) 94,92 %
31.12.2017 06:52 12,3 C 11,1 C 10,0 C 92 % 9 lf 1001,7 hPa 0,0 l/m 0 min 0 min 0 W/m 33,8 km/h (5 Bft) 94,29 %
31.12.2017 06:54 12,3 C 11,1 C 9,4 C 92 % 4 lf 1001,6 hPa 0,0 l/m 0 min 0 min 0 W/m 31,5 km/h (5 Bft) 95,74 %
31.12.2017 06:56 12,3 C 11,1 C 9,4 C 91 % 3 lf 1001,7 hPa 0,0 l/m 0 min 0 min 0 W/m 54,1 km/h (7 Bft) 93,48 %
31.12.2017 06:58 12,3 C 11,1 C 10,0 C 91 % 0 lf 1001,8 hPa 0,0 l/m 0 min 2 min 0 W/m 63,1 km/h (8 Bft) 93,62 %
31.12.2017 07:00 12,4 C 11,1 C 10,0 C 91 % 0 lf 1001,7 hPa 0,0 l/m 0 min 2 min 0 W/m 56,3 km/h (7 Bft) 93,62 %
31.12.2017 07:02 12,4 C 11,1 C 10,0 C 91 % 0 lf 1001,7 hPa 0,0 l/m 0 min 2 min 0 W/m 47,3 km/h (6 Bft) 91,49 %
31.12.2017 07:04 12,4 C 11,1 C 10,0 C 90 % 0 lf 1001,7 hPa 0,0 l/m 0 min 2 min 0 W/m 49,6 km/h (6 Bft) 93,62 %
31.12.2017 07:06 12,5 C 11,1 C 10,0 C 90 % 0 lf 1001,8 hPa 0,0 l/m 0 min 2 min 0 W/m 36,0 km/h (5 Bft) 93,48 %
31.12.2017 07:08 12,5 C 11,1 C 10,0 C 90 % 0 lf 1001,7 hPa 0,0 l/m 0 min 2 min 0 W/m 60,8 km/h (7 Bft) 91,49 %
31.12.2017 07:10 12,5 C 11,1 C 10,0 C 90 % 0 lf 1001,8 hPa 0,0 l/m 0 min 2 min 0 W/m 56,3 km/h (7 Bft) 93,62 %
31.12.2017 07:12 12,6 C 11,7 C 10,0 C 89 % 0 lf 1001,5 hPa 0,0 l/m 0 min 2 min 0 W/m 51,8 km/h (7 Bft) 91,49 %
31.12.2017 07:14 12,6 C 11,7 C 10,0 C 89 % 0 lf 1001,5 hPa 0,0 l/m 0 min 0 min 0 W/m 56,3 km/h (7 Bft) 95,74 %
31.12.2017 07:16 12,6 C 11,1 C 10,0 C 89 % 0 lf 1001,5 hPa 0,0 l/m 0 min 0 min 0 W/m 45,1 km/h (6 Bft) 95,74 %
31.12.2017 07:18 12,7 C 11,7 C 10,0 C 89 % 0 lf 1001,5 hPa 0,0 l/m 0 min 2 min 0 W/m 63,1 km/h (8 Bft) 93,48 %
31.12.2017 07:20 12,7 C 11,7 C 10,0 C 88 % 0 lf 1001,4 hPa 0,0 l/m 0 min 0 min 0 W/m 56,3 km/h (7 Bft) 98,31 %
31.12.2017 07:22 12,7 C 11,7 C 10,0 C 88 % 0 lf 1001,4 hPa 0,0 l/m 0 min 2 min 0 W/m 60,8 km/h (7 Bft) 97,14 %
31.12.2017 07:24 12,7 C 11,7 C 10,0 C 88 % 0 lf 1001,4 hPa 0,0 l/m 0 min 2 min 0 W/m 51,8 km/h (7 Bft) 97,87 %
31.12.2017 07:26 12,8 C 11,7 C 10,0 C 88 % 0 lf 1001,5 hPa 0,0 l/m 0 min 2 min 0 W/m 65,3 km/h (8 Bft) 97,87 %
31.12.2017 07:28 12,8 C 11,7 C 10,0 C 88 % 0 lf 1001,4 hPa 0,0 l/m 0 min 0 min 0 W/m 42,8 km/h (6 Bft) 95,74 %
31.12.2017 07:30 12,8 C 11,7 C 10,0 C 87 % 0 lf 1001,4 hPa 0,0 l/m 0 min 0 min 0 W/m 38,3 km/h (5 Bft) 97,83 %
31.12.2017 07:32 12,8 C 11,7 C 10,0 C 87 % 0 lf 1001,5 hPa 0,0 l/m 0 min 2 min 0 W/m 40,6 km/h (6 Bft) 95,74 %
31.12.2017 07:34 12,8 C 11,7 C 10,0 C 87 % 0 lf 1001,7 hPa 0,0 l/m 0 min 2 min 0 W/m 51,8 km/h (7 Bft) 95,74 %
31.12.2017 07:36 12,9 C 11,7 C 10,0 C 87 % 0 lf 1001,8 hPa 0,0 l/m 0 min 0 min 0 W/m 38,3 km/h (5 Bft) 93,62 %
31.12.2017 07:38 12,9 C 11,7 C 10,0 C 87 % 0 lf 1001,7 hPa 0,0 l/m 0 min 0 min 0 W/m 47,3 km/h (6 Bft) 95,74 %
31.12.2017 07:40 12,9 C 12,2 C 10,0 C 87 % 0 lf 1001,7 hPa 0,0 l/m 0 min 0 min 0 W/m 36,0 km/h (5 Bft) 97,87 %
31.12.2017 07:42 12,9 C 12,2 C 10,0 C 87 % 0 lf 1001,8 hPa 0,0 l/m 0 min 0 min 0 W/m 36,0 km/h (5 Bft) 97,83 %
31.12.2017 07:44 12,9 C 12,8 C 10,0 C 87 % 0 lf 1001,8 hPa 0,0 l/m 0 min 0 min 0 W/m 38,3 km/h (5 Bft) 97,87 %
31.12.2017 07:46 12,9 C 12,8 C 10,0 C 87 % 0 lf 1001,8 hPa 0,0 l/m 0 min 0 min 0 W/m 40,6 km/h (6 Bft) 95,74 %
31.12.2017 07:48 12,9 C 12,8 C 10,0 C 87 % 0 lf 1001,7 hPa 0,0 l/m 0 min 0 min 0 W/m 42,8 km/h (6 Bft) 91,49 %
31.12.2017 07:50 12,9 C 12,8 C 10,0 C 87 % 0 lf 1001,9 hPa 0,0 l/m 0 min 0 min 0 W/m 40,6 km/h (6 Bft) 93,10 %
31.12.2017 07:52 12,9 C 12,8 C 10,0 C 87 % 0 lf 1001,9 hPa 0,0 l/m 0 min 0 min 0 W/m 40,6 km/h (6 Bft) 100,00 %
31.12.2017 07:54 12,9 C 12,8 C 10,0 C 87 % 0 lf 1001,9 hPa 0,0 l/m 0 min 2 min 0 W/m 33,8 km/h (5 Bft) 95,65 %
31.12.2017 07:56 12,9 C 12,8 C 10,0 C 86 % 0 lf 1001,9 hPa 0,0 l/m 0 min 0 min 0 W/m 22,5 km/h (4 Bft) 95,74 %
31.12.2017 07:58 12,9 C 12,8 C 10,0 C 86 % 0 lf 1001,9 hPa 0,0 l/m 0 min 0 min 0 W/m 42,8 km/h (6 Bft) 95,74 %
31.12.2017 08:00 12,9 C 12,8 C 10,0 C 86 % 0 lf 1001,9 hPa 0,0 l/m 0 min 0 min 0 W/m 42,8 km/h (6 Bft) 97,87 %
31.12.2017 08:02 12,9 C 12,8 C 10,0 C 86 % 0 lf 1002,0 hPa 0,0 l/m 0 min 0 min 0 W/m 38,3 km/h (5 Bft) 95,74 %
31.12.2017 08:04 12,9 C 12,8 C 10,0 C 86 % 0 lf 1001,9 hPa 0,0 l/m 0 min 0 min 0 W/m 40,6 km/h (6 Bft) 93,75 %
31.12.2017 08:06 12,9 C 12,8 C 10,0 C 86 % 0 lf 1002,0 hPa 0,0 l/m 0 min 0 min 0 W/m 36,0 km/h (5 Bft) 97,87 %
31.12.2017 08:08 12,9 C 12,8 C 10,0 C 86 % 0 lf 1001,9 hPa 0,0 l/m 0 min 0 min 0 W/m 40,6 km/h (6 Bft) 97,87 %
31.12.2017 08:10 12,9 C 12,8 C 10,0 C 86 % 0 lf 1001,9 hPa 0,0 l/m 0 min 0 min 0 W/m 49,6 km/h (6 Bft) 95,74 %
31.12.2017 08:12 13,0 C 12,8 C 10,0 C 86 % 0 lf 1001,9 hPa 0,0 l/m 0 min 0 min 0 W/m 49,6 km/h (6 Bft) 97,87 %
31.12.2017 08:14 13,0 C 12,8 C 10,0 C 85 % 0 lf 1001,8 hPa 0,0 l/m 0 min 0 min 0 W/m 47,3 km/h (6 Bft) 97,83 %
31.12.2017 08:16 13,1 C 12,8 C 10,0 C 85 % 0 lf 1001,9 hPa 0,0 l/m 0 min 0 min 0 W/m 51,8 km/h (7 Bft) 89,36 %
31.12.2017 08:18 13,1 C 12,8 C 10,0 C 85 % 0 lf 1001,8 hPa 0,0 l/m 0 min 0 min 0 W/m 38,3 km/h (5 Bft) 91,49 %
31.12.2017 08:20 13,1 C 12,8 C 10,0 C 85 % 0 lf 1001,7 hPa 0,0 l/m 0 min 0 min 0 W/m 45,1 km/h (6 Bft) 93,62 %
31.12.2017 08:22 13,1 C 12,8 C 10,0 C 85 % 0 lf 1001,8 hPa 0,0 l/m 0 min 0 min 0 W/m 45,1 km/h (6 Bft) 97,87 %
31.12.2017 08:24 13,1 C 12,8 C 10,0 C 85 % 0 lf 1001,7 hPa 0,0 l/m 0 min 0 min 0 W/m 56,3 km/h (7 Bft) 100,00 %
31.12.2017 08:26 13,1 C 12,8 C 10,0 C 84 % 0 lf 1001,8 hPa 0,0 l/m 0 min 0 min 0 W/m 36,0 km/h (5 Bft) 97,87 %
31.12.2017 08:28 13,1 C 12,8 C 10,0 C 84 % 0 lf 1001,9 hPa 0,0 l/m 0 min 0 min 0 W/m 40,6 km/h (6 Bft) 97,83 %
31.12.2017 08:30 13,2 C 12,8 C 10,0 C 84 % 0 lf 1001,9 hPa 0,0 l/m 0 min 0 min 0 W/m 51,8 km/h (7 Bft) 100,00 %
31.12.2017 08:32 13,2 C 12,8 C 10,0 C 84 % 0 lf 1001,7 hPa 0,0 l/m 0 min 0 min 0 W/m 45,1 km/h (6 Bft) 97,87 %
31.12.2017 08:34 13,2 C 12,8 C 10,0 C 84 % 0 lf 1001,8 hPa 0,0 l/m 0 min 0 min 0 W/m 38,3 km/h (5 Bft) 100,00 %
31.12.2017 08:36 13,2 C 13,3 C 10,0 C 84 % 0 lf 1001,8 hPa 0,0 l/m 0 min 0 min 0 W/m 47,3 km/h (6 Bft) 97,87 %
31.12.2017 08:38 13,2 C 13,3 C 10,0 C 84 % 0 lf 1001,9 hPa 0,0 l/m 0 min 0 min 0 W/m 54,1 km/h (7 Bft) 91,30 %
31.12.2017 08:40 13,2 C 12,8 C 10,0 C 83 % 0 lf 1001,9 hPa 0,0 l/m 0 min 0 min 0 W/m 36,0 km/h (5 Bft) 97,87 %
31.12.2017 08:42 13,2 C 12,8 C 10,0 C 83 % 0 lf 1001,9 hPa 0,0 l/m 0 min 0 min 0 W/m 54,1 km/h (7 Bft) 97,87 %
31.12.2017 08:44 13,2 C 12,8 C 10,0 C 83 % 0 lf 1001,9 hPa 0,0 l/m 0 min 0 min 0 W/m 31,5 km/h (5 Bft) 97,87 %
31.12.2017 08:46 13,2 C 12,8 C 10,0 C 83 % 0 lf 1001,8 hPa 0,0 l/m 0 min 0 min 0 W/m 45,1 km/h (6 Bft) 97,87 %
31.12.2017 08:48 13,2 C 12,8 C 10,0 C 83 % 0 lf 1001,9 hPa 0,0 l/m 0 min 0 min 0 W/m 45,1 km/h (6 Bft) 97,87 %
31.12.2017 08:50 13,2 C 12,8 C 10,0 C 83 % 0 lf 1001,9 hPa 0,0 l/m 0 min 0 min 0 W/m 38,3 km/h (5 Bft) 97,83 %
31.12.2017 08:52 13,2 C 12,8 C 10,0 C 83 % 0 lf 1001,9 hPa 0,0 l/m 0 min 0 min 4 W/m 45,1 km/h (6 Bft) 97,87 %
31.12.2017 08:54 13,2 C 12,8 C 10,0 C 83 % 0 lf 1001,9 hPa 0,0 l/m 0 min 0 min 5 W/m 36,0 km/h (5 Bft) 93,62 %
31.12.2017 08:56 13,2 C 12,8 C 10,0 C 83 % 0 lf 1001,9 hPa 0,0 l/m 0 min 0 min 6 W/m 24,8 km/h (4 Bft) 97,87 %
31.12.2017 08:58 13,2 C 12,8 C 10,0 C 83 % 0 lf 1001,9 hPa 0,0 l/m 0 min 0 min 7 W/m 40,6 km/h (6 Bft) 95,74 %
31.12.2017 09:00 13,1 C 12,8 C 10,0 C 83 % 0 lf 1001,8 hPa 0,0 l/m 0 min 0 min 8 W/m 42,8 km/h (6 Bft) 95,74 %
31.12.2017 09:02 13,2 C 12,8 C 10,6 C 83 % 0 lf 1001,9 hPa 0,0 l/m 0 min 0 min 10 W/m 49,6 km/h (6 Bft) 95,65 %
31.12.2017 09:04 13,2 C 12,8 C 10,6 C 83 % 0 lf 1001,9 hPa 0,0 l/m 0 min 0 min 11 W/m 42,8 km/h (6 Bft) 97,87 %
31.12.2017 09:06 13,2 C 12,8 C 10,6 C 83 % 0 lf 1001,8 hPa 0,0 l/m 0 min 0 min 12 W/m 38,3 km/h (5 Bft) 95,74 %
31.12.2017 09:08 13,2 C 12,8 C 11,1 C 83 % 0 lf 1001,8 hPa 0,0 l/m 0 min 0 min 12 W/m 45,1 km/h (6 Bft) 95,74 %
31.12.2017 09:10 13,2 C 12,8 C 11,1 C 83 % 0 lf 1001,7 hPa 0,0 l/m 0 min 0 min 14 W/m 49,6 km/h (6 Bft) 93,62 %
31.12.2017 09:12 13,2 C 12,8 C 11,7 C 83 % 0 lf 1001,8 hPa 0,0 l/m 0 min 0 min 16 W/m 40,6 km/h (6 Bft) 91,49 %
31.12.2017 09:14 13,2 C 12,8 C 11,1 C 83 % 0 lf 1001,8 hPa 0,0 l/m 0 min 0 min 14 W/m 31,5 km/h (5 Bft) 97,83 %
31.12.2017 09:16 13,1 C 12,8 C 11,7 C 83 % 0 lf 1001,8 hPa 0,0 l/m 0 min 0 min 14 W/m 38,3 km/h (5 Bft) 91,67 %
31.12.2017 09:18 13,2 C 13,3 C 11,7 C 83 % 0 lf 1001,8 hPa 0,0 l/m 0 min 0 min 18 W/m 45,1 km/h (6 Bft) 95,74 %
31.12.2017 09:20 13,2 C 13,3 C 11,7 C 83 % 0 lf 1001,8 hPa 0,0 l/m 0 min 0 min 28 W/m 40,6 km/h (6 Bft) 95,74 %
31.12.2017 09:22 13,2 C 13,3 C 11,7 C 83 % 0 lf 1001,9 hPa 0,0 l/m 0 min 0 min 32 W/m 38,3 km/h (5 Bft) 97,87 %
31.12.2017 09:24 13,2 C 13,3 C 11,7 C 83 % 0 lf 1001,8 hPa 0,0 l/m 0 min 0 min 39 W/m 47,3 km/h (6 Bft) 97,83 %
31.12.2017 09:26 13,2 C 13,3 C 11,7 C 83 % 0 lf 1001,8 hPa 0,0 l/m 0 min 0 min 33 W/m 51,8 km/h (7 Bft) 97,87 %
31.12.2017 09:28 13,2 C 13,3 C 11,7 C 83 % 0 lf 1001,8 hPa 0,0 l/m 0 min 0 min 23 W/m 54,1 km/h (7 Bft) 97,87 %
31.12.2017 09:30 13,2 C 13,3 C 11,7 C 83 % 0 lf 1001,9 hPa 0,0 l/m 0 min 0 min 19 W/m 47,3 km/h (6 Bft) 95,74 %
31.12.2017 09:32 13,2 C 13,3 C 11,7 C 83 % 0 lf 1001,8 hPa 0,0 l/m 0 min 0 min 16 W/m 38,3 km/h (5 Bft) 97,87 %
31.12.2017 09:34 13,2 C 13,3 C 11,7 C 83 % 0 lf 1001,8 hPa 0,0 l/m 0 min 0 min 14 W/m 45,1 km/h (6 Bft) 95,74 %
31.12.2017 09:36 13,2 C 13,3 C 11,7 C 83 % 0 lf 1001,8 hPa 0,0 l/m 0 min 0 min 16 W/m 40,6 km/h (6 Bft) 97,83 %
31.12.2017 09:38 13,2 C 13,3 C 11,7 C 83 % 0 lf 1001,7 hPa 0,0 l/m 0 min 0 min 18 W/m 40,6 km/h (6 Bft) 97,87 %
31.12.2017 09:40 13,2 C 13,3 C 11,7 C 83 % 0 lf 1001,7 hPa 0,0 l/m 0 min 0 min 19 W/m 51,8 km/h (7 Bft) 95,74 %
31.12.2017 09:42 13,2 C 13,3 C 11,7 C 83 % 0 lf 1001,8 hPa 0,0 l/m 0 min 0 min 23 W/m 36,0 km/h (5 Bft) 97,87 %
31.12.2017 09:44 13,2 C 13,3 C 11,7 C 83 % 0 lf 1001,8 hPa 0,0 l/m 0 min 0 min 23 W/m 31,5 km/h (5 Bft) 95,74 %
31.12.2017 09:46 13,2 C 12,8 C 11,7 C 83 % 0 lf 1001,7 hPa 0,0 l/m 0 min 0 min 20 W/m 33,8 km/h (5 Bft) 95,74 %
31.12.2017 09:48 13,2 C 12,8 C 11,7 C 83 % 0 lf 1001,9 hPa 0,0 l/m 0 min 0 min 22 W/m 40,6 km/h (6 Bft) 95,65 %
31.12.2017 09:50 13,2 C 12,8 C 11,7 C 83 % 0 lf 1001,8 hPa 0,0 l/m 0 min 0 min 18 W/m 31,5 km/h (5 Bft) 100,00 %
31.12.2017 09:52 13,2 C 13,3 C 11,7 C 83 % 0 lf 1001,8 hPa 0,0 l/m 0 min 0 min 18 W/m 38,3 km/h (5 Bft) 100,00 %
31.12.2017 09:54 13,2 C 12,8 C 11,7 C 83 % 0 lf 1001,8 hPa 0,0 l/m 0 min 0 min 20 W/m 38,3 km/h (5 Bft) 100,00 %
31.12.2017 09:56 13,2 C 12,8 C 11,7 C 84 % 0 lf 1001,8 hPa 0,0 l/m 0 min 0 min 21 W/m 29,3 km/h (5 Bft) 100,00 %
31.12.2017 09:58 13,2 C 12,8 C 11,7 C 84 % 0 lf 1001,7 hPa 0,0 l/m 0 min 0 min 19 W/m 24,8 km/h (4 Bft) 100,00 %
31.12.2017 10:00 13,2 C 12,8 C 11,7 C 84 % 0 lf 1001,7 hPa 0,0 l/m 0 min 0 min 20 W/m 40,6 km/h (6 Bft) 95,65 %
31.12.2017 10:02 13,2 C 13,3 C 11,7 C 84 % 0 lf 1001,9 hPa 0,0 l/m 0 min 0 min 19 W/m 33,8 km/h (5 Bft) 95,74 %
31.12.2017 10:04 13,2 C 13,3 C 11,7 C 84 % 0 lf 1001,9 hPa 0,0 l/m 0 min 0 min 20 W/m 42,8 km/h (6 Bft) 97,87 %
31.12.2017 10:06 13,2 C 13,3 C 11,7 C 84 % 0 lf 1001,9 hPa 0,0 l/m 0 min 0 min 22 W/m 47,3 km/h (6 Bft) 100,00 %
31.12.2017 10:08 13,2 C 12,8 C 11,7 C 84 % 0 lf 1001,8 hPa 0,0 l/m 0 min 0 min 23 W/m 31,5 km/h (5 Bft) 95,74 %
31.12.2017 10:10 13,2 C 13,3 C 11,7 C 84 % 0 lf 1001,8 hPa 0,0 l/m 0 min 0 min 22 W/m 40,6 km/h (6 Bft) 100,00 %
31.12.2017 10:12 13,2 C 13,3 C 11,7 C 84 % 0 lf 1001,8 hPa 0,0 l/m 0 min 0 min 25 W/m 47,3 km/h (6 Bft) 97,83 %
31.12.2017 10:14 13,2 C 13,3 C 11,7 C 84 % 0 lf 1001,7 hPa 0,0 l/m 0 min 0 min 20 W/m 40,6 km/h (6 Bft) 97,87 %
31.12.2017 10:16 13,2 C 12,8 C 11,7 C 84 % 0 lf 1001,9 hPa 0,0 l/m 0 min 0 min 17 W/m 27,0 km/h (4 Bft) 100,00 %
31.12.2017 10:18 13,2 C 12,8 C 11,7 C 84 % 0 lf 1001,7 hPa 0,0 l/m 0 min 0 min 19 W/m 63,1 km/h (8 Bft) 93,62 %
31.12.2017 10:20 13,2 C 13,3 C 11,7 C 84 % 0 lf 1001,7 hPa 0,0 l/m 0 min 0 min 22 W/m 45,1 km/h (6 Bft) 95,74 %
31.12.2017 10:22 13,2 C 13,3 C 11,7 C 84 % 0 lf 1001,6 hPa 0,0 l/m 0 min 0 min 25 W/m 36,0 km/h (5 Bft) 93,48 %
31.12.2017 10:24 13,2 C 12,8 C 11,7 C 84 % 0 lf 1001,6 hPa 0,0 l/m 0 min 0 min 21 W/m 33,8 km/h (5 Bft) 95,74 %
31.12.2017 10:26 13,2 C 12,8 C 11,7 C 84 % 0 lf 1001,7 hPa 0,0 l/m 0 min 0 min 15 W/m 29,3 km/h (5 Bft) 95,74 %
31.12.2017 10:28 13,2 C 12,8 C 11,7 C 84 % 0 lf 1001,7 hPa 0,0 l/m 0 min 0 min 13 W/m 36,0 km/h (5 Bft) 93,62 %
31.12.2017 10:30 13,2 C 12,8 C 11,7 C 84 % 0 lf 1001,7 hPa 0,0 l/m 0 min 0 min 22 W/m 36,0 km/h (5 Bft) 95,74 %
31.12.2017 10:32 13,2 C 12,8 C 11,7 C 84 % 0 lf 1001,6 hPa 0,0 l/m 0 min 0 min 26 W/m 31,5 km/h (5 Bft) 93,62 %
31.12.2017 10:34 13,2 C 12,8 C 11,7 C 85 % 0 lf 1001,8 hPa 0,0 l/m 0 min 0 min 20 W/m 38,3 km/h (5 Bft) 93,62 %
31.12.2017 10:36 13,2 C 13,3 C 11,7 C 85 % 0 lf 1001,8 hPa 0,0 l/m 0 min 0 min 22 W/m 36,0 km/h (5 Bft) 91,30 %
31.12.2017 10:38 13,2 C 13,3 C 11,7 C 85 % 0 lf 1001,8 hPa 0,0 l/m 0 min 0 min 27 W/m 33,8 km/h (5 Bft) 93,62 %
31.12.2017 10:40 13,2 C 13,3 C 11,7 C 85 % 0 lf 1001,8 hPa 0,0 l/m 0 min 0 min 31 W/m 38,3 km/h (5 Bft) 95,74 %
31.12.2017 10:42 13,2 C 13,3 C 11,7 C 85 % 0 lf 1001,8 hPa 0,0 l/m 0 min 0 min 29 W/m 24,8 km/h (4 Bft) 89,36 %
31.12.2017 10:44 13,2 C 13,3 C 11,7 C 85 % 0 lf 1002,0 hPa 0,0 l/m 0 min 0 min 25 W/m 31,5 km/h (5 Bft) 93,62 %
31.12.2017 10:46 13,2 C 13,3 C 11,7 C 85 % 0 lf 1002,1 hPa 0,0 l/m 0 min 0 min 22 W/m 49,6 km/h (6 Bft) 91,30 %
31.12.2017 10:48 13,2 C 13,3 C 11,7 C 85 % 0 lf 1001,9 hPa 0,0 l/m 0 min 0 min 18 W/m 36,0 km/h (5 Bft) 93,62 %
31.12.2017 10:50 13,2 C 13,3 C 11,7 C 85 % 0 lf 1001,9 hPa 0,0 l/m 0 min 0 min 18 W/m 47,3 km/h (6 Bft) 93,62 %
31.12.2017 10:52 13,2 C 13,3 C 11,7 C 85 % 0 lf 1001,8 hPa 0,0 l/m 0 min 0 min 26 W/m 24,8 km/h (4 Bft) 91,49 %
31.12.2017 10:54 13,2 C 13,3 C 11,7 C 85 % 0 lf 1001,7 hPa 0,0 l/m 0 min 0 min 34 W/m 36,0 km/h (5 Bft) 95,74 %
31.12.2017 10:56 13,2 C 13,3 C 11,7 C 85 % 0 lf 1001,8 hPa 0,0 l/m 0 min 0 min 40 W/m 29,3 km/h (5 Bft) 93,62 %
31.12.2017 10:58 13,2 C 13,3 C 11,7 C 85 % 0 lf 1001,7 hPa 0,0 l/m 0 min 0 min 42 W/m 22,5 km/h (4 Bft) 93,48 %
31.12.2017 11:00 13,2 C 13,3 C 11,7 C 85 % 0 lf 1001,7 hPa 0,0 l/m 0 min 0 min 42 W/m 29,3 km/h (5 Bft) 91,49 %
31.12.2017 11:02 13,2 C 13,3 C 11,7 C 85 % 0 lf 1001,6 hPa 0,0 l/m 0 min 0 min 58 W/m 22,5 km/h (4 Bft) 91,49 %
31.12.2017 11:04 13,2 C 13,9 C 12,2 C 85 % 0 lf 1001,5 hPa 0,0 l/m 0 min 0 min 92 W/m 40,6 km/h (6 Bft) 91,49 %
31.12.2017 11:06 13,2 C 13,9 C 12,2 C 85 % 0 lf 1001,5 hPa 0,0 l/m 0 min 0 min 84 W/m 45,1 km/h (6 Bft) 91,49 %
31.12.2017 11:08 13,3 C 13,9 C 12,2 C 85 % 0 lf 1001,5 hPa 0,0 l/m 0 min 0 min 73 W/m 40,6 km/h (6 Bft) 97,87 %
31.12.2017 11:10 13,3 C 13,9 C 12,2 C 85 % 0 lf 1001,4 hPa 0,0 l/m 0 min 0 min 63 W/m 29,3 km/h (5 Bft) 97,83 %
31.12.2017 11:12 13,3 C 13,9 C 12,2 C 85 % 0 lf 1001,5 hPa 0,0 l/m 0 min 0 min 68 W/m 29,3 km/h (5 Bft) 93,62 %
31.12.2017 11:14 13,4 C 13,9 C 12,2 C 85 % 0 lf 1001,4 hPa 0,0 l/m 0 min 0 min 120 W/m 31,5 km/h (5 Bft) 97,87 %
31.12.2017 11:16 13,4 C 13,9 C 12,2 C 85 % 0 lf 1001,5 hPa 0,0 l/m 0 min 0 min 122 W/m 29,3 km/h (5 Bft) 97,87 %
31.12.2017 11:18 13,4 C 13,9 C 12,2 C 85 % 0 lf 1001,4 hPa 0,0 l/m 0 min 0 min 68 W/m 33,8 km/h (5 Bft) 93,62 %
31.12.2017 11:20 13,4 C 13,9 C 12,2 C 85 % 0 lf 1001,4 hPa 0,0 l/m 0 min 0 min 81 W/m 36,0 km/h (5 Bft) 100,00 %
31.12.2017 11:22 13,5 C 13,9 C 12,2 C 85 % 3 lf 1001,4 hPa 0,0 l/m 0 min 2 min 87 W/m 33,8 km/h (5 Bft) 100,00 %
31.12.2017 11:24 13,5 C 13,9 C 11,7 C 85 % 0 lf 1001,5 hPa 0,0 l/m 0 min 2 min 76 W/m 40,6 km/h (6 Bft) 97,87 %
31.12.2017 11:26 13,5 C 13,9 C 11,7 C 85 % 0 lf 1001,5 hPa 0,0 l/m 0 min 2 min 65 W/m 47,3 km/h (6 Bft) 100,00 %
31.12.2017 11:28 13,5 C 13,9 C 11,7 C 85 % 0 lf 1001,3 hPa 0,0 l/m 0 min 2 min 76 W/m 36,0 km/h (5 Bft) 95,74 %
31.12.2017 11:30 13,6 C 13,9 C 12,2 C 85 % 0 lf 1001,3 hPa 0,0 l/m 0 min 2 min 101 W/m 42,8 km/h (6 Bft) 100,00 %
31.12.2017 11:32 13,6 C 13,9 C 12,2 C 85 % 0 lf 1001,2 hPa 0,0 l/m 0 min 0 min 91 W/m 22,5 km/h (4 Bft) 100,00 %
31.12.2017 11:34 13,6 C 13,9 C 12,2 C 85 % 0 lf 1001,0 hPa 0,0 l/m 0 min 0 min 82 W/m 31,5 km/h (5 Bft) 100,00 %
31.12.2017 11:36 13,6 C 13,9 C 12,2 C 85 % 0 lf 1001,1 hPa 0,0 l/m 0 min 0 min 82 W/m 33,8 km/h (5 Bft) 97,87 %
31.12.2017 11:38 13,6 C 13,9 C 12,2 C 84 % 0 lf 1001,1 hPa 0,0 l/m 0 min 0 min 70 W/m 47,3 km/h (6 Bft) 100,00 %
31.12.2017 11:40 13,6 C 13,9 C 12,2 C 84 % 0 lf 1001,0 hPa 0,0 l/m 0 min 0 min 64 W/m 49,6 km/h (6 Bft) 95,74 %
31.12.2017 11:42 13,6 C 13,9 C 12,2 C 84 % 0 lf 1001,0 hPa 0,0 l/m 0 min 0 min 74 W/m 40,6 km/h (6 Bft) 100,00 %
31.12.2017 11:44 13,7 C 13,9 C 12,8 C 84 % 0 lf 1001,1 hPa 0,0 l/m 0 min 0 min 100 W/m 31,5 km/h (5 Bft) 95,65 %
31.12.2017 11:46 13,7 C 13,9 C 12,8 C 84 % 0 lf 1001,2 hPa 0,0 l/m 0 min 0 min 98 W/m 38,3 km/h (5 Bft) 100,00 %
31.12.2017 11:48 13,7 C 13,9 C 12,8 C 84 % 0 lf 1001,2 hPa 0,0 l/m 0 min 0 min 85 W/m 51,8 km/h (7 Bft) 95,74 %
31.12.2017 11:50 13,7 C 14,4 C 12,8 C 84 % 0 lf 1001,1 hPa 0,0 l/m 0 min 0 min 102 W/m 38,3 km/h (5 Bft) 97,87 %
31.12.2017 11:52 13,8 C 13,9 C 12,8 C 84 % 0 lf 1001,2 hPa 0,0 l/m 0 min 0 min 78 W/m 31,5 km/h (5 Bft) 95,74 %
31.12.2017 11:54 13,8 C 13,9 C 12,8 C 84 % 0 lf 1001,1 hPa 0,0 l/m 0 min 0 min 75 W/m 58,6 km/h (7 Bft) 97,87 %
31.12.2017 11:56 13,8 C 14,4 C 12,8 C 84 % 0 lf 1001,2 hPa 0,0 l/m 0 min 0 min 99 W/m 40,6 km/h (6 Bft) 97,83 %
31.12.2017 11:58 13,8 C 14,4 C 12,8 C 84 % 0 lf 1001,2 hPa 0,0 l/m 0 min 0 min 120 W/m 45,1 km/h (6 Bft) 95,74 %
31.12.2017 12:00 13,9 C 14,4 C 12,8 C 84 % 0 lf 1001,0 hPa 0,0 l/m 0 min 0 min 103 W/m 49,6 km/h (6 Bft) 97,87 %
31.12.2017 12:02 13,9 C 14,4 C 12,8 C 83 % 0 lf 1001,0 hPa 0,0 l/m 0 min 0 min 89 W/m 31,5 km/h (5 Bft) 93,62 %
31.12.2017 12:04 13,9 C 14,4 C 12,8 C 83 % 0 lf 1001,2 hPa 0,0 l/m 0 min 0 min 64 W/m 45,1 km/h (6 Bft) 97,87 %
31.12.2017 12:06 13,9 C 14,4 C 12,8 C 83 % 0 lf 1001,2 hPa 0,0 l/m 0 min 0 min 75 W/m 40,6 km/h (6 Bft) 97,87 %
31.12.2017 12:10 13,9 C 14,4 C 12,8 C 83 % 0 lf 1000,9 hPa 0,0 l/m 0 min 0 min 84 W/m 42,8 km/h (6 Bft) 96,77 %
31.12.2017 12:12 13,9 C 14,4 C 12,8 C 83 % 0 lf 1000,9 hPa 0,0 l/m 0 min 0 min 66 W/m 29,3 km/h (5 Bft) 97,87 %
31.12.2017 12:14 13,9 C 14,4 C 12,8 C 83 % 0 lf 1001,0 hPa 0,0 l/m 0 min 0 min 88 W/m 31,5 km/h (5 Bft) 95,74 %
31.12.2017 12:16 13,9 C 13,9 C 12,8 C 83 % 0 lf 1001,0 hPa 0,0 l/m 0 min 0 min 71 W/m 40,6 km/h (6 Bft) 95,74 %
31.12.2017 12:18 13,9 C 13,9 C 12,8 C 83 % 0 lf 1000,9 hPa 0,0 l/m 0 min 0 min 84 W/m 65,3 km/h (8 Bft) 97,87 %
31.12.2017 12:20 13,9 C 13,9 C 12,8 C 83 % 0 lf 1000,8 hPa 0,0 l/m 0 min 0 min 88 W/m 51,8 km/h (7 Bft) 93,88 %
31.12.2017 12:22 13,9 C 13,9 C 12,8 C 83 % 0 lf 1000,9 hPa 0,0 l/m 0 min 0 min 84 W/m 47,3 km/h (6 Bft) 93,62 %
31.12.2017 12:24 13,9 C 13,9 C 12,8 C 83 % 0 lf 1001,0 hPa 0,0 l/m 0 min 0 min 73 W/m 45,1 km/h (6 Bft) 97,87 %
31.12.2017 12:26 13,9 C 13,9 C 12,8 C 83 % 0 lf 1000,9 hPa 0,0 l/m 0 min 0 min 90 W/m 31,5 km/h (5 Bft) 97,87 %
31.12.2017 12:28 13,9 C 14,4 C 12,8 C 83 % 0 lf 1000,7 hPa 0,0 l/m 0 min 0 min 109 W/m 42,8 km/h (6 Bft) 97,87 %
31.12.2017 12:30 13,9 C 14,4 C 12,8 C 83 % 0 lf 1000,9 hPa 0,0 l/m 0 min 0 min 131 W/m 49,6 km/h (6 Bft) 95,65 %
31.12.2017 12:32 14,0 C 14,4 C 12,8 C 83 % 0 lf 1000,7 hPa 0,0 l/m 0 min 0 min 139 W/m 45,1 km/h (6 Bft) 95,74 %
31.12.2017 12:34 14,0 C 14,4 C 12,8 C 83 % 0 lf 1000,8 hPa 0,0 l/m 0 min 0 min 110 W/m 49,6 km/h (6 Bft) 97,87 %
31.12.2017 12:36 14,1 C 14,4 C 12,8 C 83 % 0 lf 1000,6 hPa 0,0 l/m 0 min 0 min 100 W/m 54,1 km/h (7 Bft) 87,23 %
31.12.2017 12:38 14,1 C 14,4 C 12,8 C 82 % 0 lf 1000,7 hPa 0,0 l/m 0 min 0 min 94 W/m 56,3 km/h (7 Bft) 95,74 %
31.12.2017 12:40 14,1 C 14,4 C 12,8 C 83 % 0 lf 1000,7 hPa 0,0 l/m 0 min 0 min 123 W/m 36,0 km/h (5 Bft) 93,62 %
31.12.2017 12:42 14,1 C 15,0 C 12,8 C 82 % 0 lf 1000,5 hPa 0,0 l/m 0 min 0 min 136 W/m 36,0 km/h (5 Bft) 97,83 %
31.12.2017 12:44 14,1 C 15,0 C 12,8 C 82 % 0 lf 1000,6 hPa 0,0 l/m 0 min 0 min 116 W/m 42,8 km/h (6 Bft) 97,87 %
31.12.2017 12:46 14,2 C 15,0 C 12,8 C 82 % 0 lf 1000,5 hPa 0,0 l/m 0 min 0 min 130 W/m 40,6 km/h (6 Bft) 97,87 %
31.12.2017 12:48 14,2 C 14,4 C 12,8 C 82 % 0 lf 1000,5 hPa 0,0 l/m 0 min 0 min 105 W/m 47,3 km/h (6 Bft) 100,00 %
31.12.2017 12:50 14,2 C 14,4 C 12,8 C 82 % 0 lf 1000,4 hPa 0,0 l/m 0 min 0 min 88 W/m 36,0 km/h (5 Bft) 95,74 %
31.12.2017 12:52 14,2 C 14,4 C 12,8 C 82 % 0 lf 1000,5 hPa 0,0 l/m 0 min 0 min 80 W/m 38,3 km/h (5 Bft) 95,74 %
31.12.2017 12:54 14,2 C 14,4 C 12,8 C 82 % 0 lf 1000,6 hPa 0,0 l/m 0 min 0 min 91 W/m 49,6 km/h (6 Bft) 97,83 %
31.12.2017 12:56 14,1 C 14,4 C 12,8 C 82 % 0 lf 1000,4 hPa 0,0 l/m 0 min 0 min 85 W/m 49,6 km/h (6 Bft) 97,87 %
31.12.2017 12:58 14,1 C 13,9 C 12,8 C 82 % 0 lf 1000,3 hPa 0,0 l/m 0 min 0 min 75 W/m 45,1 km/h (6 Bft) 95,74 %
31.12.2017 13:00 14,1 C 13,9 C 12,8 C 82 % 0 lf 1000,2 hPa 0,0 l/m 0 min 0 min 75 W/m 54,1 km/h (7 Bft) 97,87 %
31.12.2017 13:02 14,1 C 13,9 C 12,8 C 82 % 0 lf 1000,4 hPa 0,0 l/m 0 min 0 min 76 W/m 27,0 km/h (4 Bft) 97,87 %
31.12.2017 13:04 14,1 C 14,4 C 12,8 C 82 % 0 lf 1000,3 hPa 0,0 l/m 0 min 0 min 98 W/m 40,6 km/h (6 Bft) 93,62 %
31.12.2017 13:06 14,1 C 14,4 C 12,8 C 82 % 0 lf 1000,3 hPa 0,0 l/m 0 min 0 min 83 W/m 45,1 km/h (6 Bft) 95,65 %
31.12.2017 13:08 14,1 C 13,9 C 12,8 C 82 % 0 lf 1000,3 hPa 0,0 l/m 0 min 0 min 70 W/m 47,3 km/h (6 Bft) 95,74 %
31.12.2017 13:10 14,1 C 13,9 C 12,8 C 82 % 0 lf 1000,3 hPa 0,0 l/m 0 min 0 min 65 W/m 36,0 km/h (5 Bft) 95,74 %
31.12.2017 13:12 14,1 C 13,9 C 12,8 C 82 % 0 lf 1000,3 hPa 0,0 l/m 0 min 0 min 65 W/m 47,3 km/h (6 Bft) 97,87 %
31.12.2017 13:14 14,1 C 13,9 C 12,8 C 82 % 0 lf 1000,2 hPa 0,0 l/m 0 min 0 min 72 W/m 40,6 km/h (6 Bft) 97,87 %
31.12.2017 13:16 14,1 C 13,9 C 12,8 C 82 % 0 lf 1000,2 hPa 0,0 l/m 0 min 0 min 73 W/m 40,6 km/h (6 Bft) 95,74 %
31.12.2017 13:18 14,1 C 14,4 C 12,8 C 82 % 0 lf 1000,1 hPa 0,0 l/m 0 min 0 min 83 W/m 49,6 km/h (6 Bft) 97,83 %
31.12.2017 13:20 14,0 C 14,4 C 12,8 C 82 % 0 lf 1000,0 hPa 0,0 l/m 0 min 0 min 82 W/m 36,0 km/h (5 Bft) 95,74 %
31.12.2017 13:22 14,1 C 14,4 C 12,8 C 82 % 0 lf 1000,0 hPa 0,0 l/m 0 min 0 min 75 W/m 24,8 km/h (4 Bft) 95,92 %
31.12.2017 13:24 14,1 C 14,4 C 12,8 C 82 % 0 lf 999,8 hPa 0,0 l/m 0 min 0 min 70 W/m 24,8 km/h (4 Bft) 97,87 %
31.12.2017 13:26 14,1 C 14,4 C 12,8 C 82 % 0 lf 999,9 hPa 0,0 l/m 0 min 0 min 73 W/m 56,3 km/h (7 Bft) 91,49 %
31.12.2017 13:28 14,1 C 14,4 C 12,8 C 82 % 0 lf 999,8 hPa 0,0 l/m 0 min 0 min 80 W/m 40,6 km/h (6 Bft) 97,87 %
31.12.2017 13:30 14,1 C 14,4 C 12,8 C 81 % 0 lf 999,8 hPa 0,0 l/m 0 min 0 min 83 W/m 36,0 km/h (5 Bft) 97,87 %
31.12.2017 13:32 14,1 C 14,4 C 12,8 C 81 % 0 lf 999,8 hPa 0,0 l/m 0 min 0 min 98 W/m 38,3 km/h (5 Bft) 93,48 %
31.12.2017 13:34 14,1 C 14,4 C 12,8 C 81 % 0 lf 999,7 hPa 0,0 l/m 0 min 0 min 120 W/m 33,8 km/h (5 Bft) 95,74 %
31.12.2017 13:36 14,1 C 14,4 C 13,3 C 81 % 0 lf 999,8 hPa 0,0 l/m 0 min 0 min 109 W/m 49,6 km/h (6 Bft) 97,87 %
31.12.2017 13:38 14,2 C 14,4 C 13,3 C 81 % 0 lf 999,7 hPa 0,0 l/m 0 min 0 min 111 W/m 49,6 km/h (6 Bft) 95,74 %
31.12.2017 13:40 14,2 C 14,4 C 13,3 C 81 % 0 lf 999,6 hPa 0,0 l/m 0 min 0 min 113 W/m 40,6 km/h (6 Bft) 97,87 %
31.12.2017 13:42 14,2 C 14,4 C 13,3 C 81 % 0 lf 999,7 hPa 0,0 l/m 0 min 0 min 85 W/m 36,0 km/h (5 Bft) 97,83 %
31.12.2017 13:44 14,2 C 14,4 C 13,3 C 81 % 0 lf 999,6 hPa 0,0 l/m 0 min 0 min 82 W/m 33,8 km/h (5 Bft) 91,49 %
31.12.2017 13:46 14,2 C 14,4 C 12,8 C 81 % 0 lf 999,7 hPa 0,0 l/m 0 min 0 min 71 W/m 51,8 km/h (7 Bft) 95,74 %
31.12.2017 13:48 14,2 C 14,4 C 12,8 C 80 % 0 lf 999,6 hPa 0,0 l/m 0 min 0 min 87 W/m 27,0 km/h (4 Bft) 95,74 %
31.12.2017 13:50 14,2 C 14,4 C 13,3 C 80 % 0 lf 999,6 hPa 0,0 l/m 0 min 0 min 97 W/m 38,3 km/h (5 Bft) 95,74 %
31.12.2017 13:52 14,2 C 14,4 C 12,8 C 80 % 0 lf 999,7 hPa 0,0 l/m 0 min 0 min 83 W/m 27,0 km/h (4 Bft) 97,87 %
31.12.2017 13:54 14,2 C 14,4 C 12,8 C 80 % 0 lf 999,6 hPa 0,0 l/m 0 min 0 min 74 W/m 36,0 km/h (5 Bft) 95,65 %
31.12.2017 13:56 14,2 C 14,4 C 12,8 C 80 % 0 lf 999,7 hPa 0,0 l/m 0 min 0 min 65 W/m 36,0 km/h (5 Bft) 93,62 %
31.12.2017 13:58 14,2 C 14,4 C 12,8 C 80 % 0 lf 999,5 hPa 0,0 l/m 0 min 0 min 71 W/m 45,1 km/h (6 Bft) 93,62 %
31.12.2017 14:00 14,2 C 14,4 C 12,8 C 80 % 0 lf 999,5 hPa 0,0 l/m 0 min 0 min 56 W/m 38,3 km/h (5 Bft) 93,62 %
31.12.2017 14:02 14,2 C 14,4 C 12,8 C 80 % 0 lf 999,6 hPa 0,0 l/m 0 min 0 min 47 W/m 49,6 km/h (6 Bft) 97,87 %
31.12.2017 14:04 14,2 C 14,4 C 12,8 C 80 % 0 lf 999,4 hPa 0,0 l/m 0 min 0 min 62 W/m 40,6 km/h (6 Bft) 97,87 %
31.12.2017 14:06 14,2 C 14,4 C 12,8 C 80 % 0 lf 999,4 hPa 0,0 l/m 0 min 0 min 71 W/m 40,6 km/h (6 Bft) 93,48 %
31.12.2017 14:08 14,2 C 14,4 C 12,8 C 80 % 0 lf 999,3 hPa 0,0 l/m 0 min 0 min 79 W/m 42,8 km/h (6 Bft) 97,87 %
31.12.2017 14:10 14,2 C 14,4 C 12,8 C 80 % 0 lf 999,3 hPa 0,0 l/m 0 min 0 min 76 W/m 40,6 km/h (6 Bft) 97,87 %
31.12.2017 14:12 14,2 C 14,4 C 12,8 C 80 % 0 lf 999,3 hPa 0,0 l/m 0 min 0 min 71 W/m 38,3 km/h (5 Bft) 95,74 %
31.12.2017 14:14 14,2 C 14,4 C 12,8 C 80 % 0 lf 999,3 hPa 0,0 l/m 0 min 0 min 69 W/m 36,0 km/h (5 Bft) 97,87 %
31.12.2017 14:16 14,2 C 14,4 C 12,8 C 80 % 0 lf 999,0 hPa 0,0 l/m 0 min 0 min 67 W/m 42,8 km/h (6 Bft) 95,74 %
31.12.2017 14:18 14,2 C 14,4 C 12,8 C 79 % 0 lf 999,1 hPa 0,0 l/m 0 min 0 min 70 W/m 31,5 km/h (5 Bft) 97,87 %
31.12.2017 14:20 14,2 C 14,4 C 12,8 C 79 % 0 lf 999,1 hPa 0,0 l/m 0 min 0 min 78 W/m 38,3 km/h (5 Bft) 97,83 %
31.12.2017 14:22 14,2 C 14,4 C 12,8 C 79 % 0 lf 999,1 hPa 0,0 l/m 0 min 0 min 82 W/m 31,5 km/h (5 Bft) 97,87 %
31.12.2017 14:24 14,2 C 14,4 C 12,8 C 79 % 0 lf 999,1 hPa 0,0 l/m 0 min 0 min 77 W/m 45,1 km/h (6 Bft) 97,87 %
31.12.2017 14:26 14,2 C 14,4 C 12,8 C 79 % 0 lf 999,0 hPa 0,0 l/m 0 min 0 min 69 W/m 40,6 km/h (6 Bft) 95,74 %
31.12.2017 14:28 14,2 C 14,4 C 12,8 C 79 % 0 lf 999,1 hPa 0,0 l/m 0 min 0 min 68 W/m 36,0 km/h (5 Bft) 93,62 %
31.12.2017 14:30 14,2 C 13,9 C 12,8 C 79 % 0 lf 999,1 hPa 0,0 l/m 0 min 0 min 63 W/m 29,3 km/h (5 Bft) 91,30 %
31.12.2017 14:32 14,2 C 13,9 C 12,8 C 79 % 0 lf 999,0 hPa 0,0 l/m 0 min 0 min 59 W/m 45,1 km/h (6 Bft) 95,74 %
31.12.2017 14:34 14,2 C 14,4 C 12,8 C 78 % 0 lf 998,9 hPa 0,0 l/m 0 min 0 min 68 W/m 49,6 km/h (6 Bft) 97,87 %
31.12.2017 14:36 14,2 C 13,9 C 12,8 C 79 % 0 lf 999,0 hPa 0,0 l/m 0 min 0 min 63 W/m 33,8 km/h (5 Bft) 97,87 %
31.12.2017 14:38 14,2 C 13,9 C 12,8 C 78 % 0 lf 998,8 hPa 0,0 l/m 0 min 0 min 50 W/m 51,8 km/h (7 Bft) 93,62 %
31.12.2017 14:40 14,2 C 13,9 C 12,8 C 78 % 0 lf 998,9 hPa 0,0 l/m 0 min 0 min 42 W/m 47,3 km/h (6 Bft) 91,49 %
31.12.2017 14:42 14,2 C 13,9 C 12,8 C 78 % 0 lf 998,8 hPa 0,0 l/m 0 min 0 min 36 W/m 38,3 km/h (5 Bft) 95,65 %
31.12.2017 14:44 14,2 C 13,9 C 12,8 C 78 % 0 lf 998,7 hPa 0,0 l/m 0 min 0 min 40 W/m 45,1 km/h (6 Bft) 97,22 %
31.12.2017 14:46 14,1 C 13,9 C 12,8 C 78 % 0 lf 998,7 hPa 0,0 l/m 0 min 0 min 45 W/m 40,6 km/h (6 Bft) 96,61 %
31.12.2017 14:48 14,1 C 13,9 C 12,8 C 78 % 0 lf 998,6 hPa 0,0 l/m 0 min 0 min 39 W/m 33,8 km/h (5 Bft) 93,62 %
31.12.2017 14:50 14,1 C 13,9 C 12,8 C 78 % 0 lf 998,6 hPa 0,0 l/m 0 min 0 min 34 W/m 38,3 km/h (5 Bft) 95,65 %
31.12.2017 14:52 14,1 C 13,9 C 12,8 C 78 % 0 lf 998,6 hPa 0,0 l/m 0 min 0 min 28 W/m 47,3 km/h (6 Bft) 91,49 %
31.12.2017 14:54 14,1 C 13,9 C 12,8 C 78 % 0 lf 998,6 hPa 0,0 l/m 0 min 0 min 24 W/m 47,3 km/h (6 Bft) 95,74 %
31.12.2017 14:56 14,1 C 13,9 C 12,2 C 78 % 0 lf 998,5 hPa 0,0 l/m 0 min 0 min 23 W/m 36,0 km/h (5 Bft) 91,43 %
31.12.2017 14:58 14,1 C 13,9 C 12,2 C 78 % 0 lf 998,5 hPa 0,0 l/m 0 min 0 min 27 W/m 24,8 km/h (4 Bft) 95,74 %
31.12.2017 15:00 14,1 C 13,9 C 12,2 C 78 % 0 lf 998,5 hPa 0,0 l/m 0 min 0 min 26 W/m 36,0 km/h (5 Bft) 95,74 %
31.12.2017 15:02 14,1 C 13,9 C 12,2 C 78 % 0 lf 998,4 hPa 0,0 l/m 0 min 0 min 22 W/m 42,8 km/h (6 Bft) 94,83 %
31.12.2017 15:04 14,1 C 13,9 C 12,2 C 78 % 0 lf 998,4 hPa 0,0 l/m 0 min 0 min 25 W/m 56,3 km/h (7 Bft) 95,74 %
31.12.2017 15:06 14,1 C 13,9 C 12,2 C 77 % 0 lf 998,4 hPa 0,0 l/m 0 min 0 min 22 W/m 54,1 km/h (7 Bft) 97,14 %
31.12.2017 15:08 14,1 C 13,9 C 12,2 C 77 % 0 lf 998,3 hPa 0,0 l/m 0 min 0 min 22 W/m 38,3 km/h (5 Bft) 93,22 %
31.12.2017 15:10 14,1 C 13,9 C 12,2 C 77 % 0 lf 998,3 hPa 0,0 l/m 0 min 0 min 26 W/m 42,8 km/h (6 Bft) 95,74 %
31.12.2017 15:12 14,1 C 13,9 C 12,2 C 77 % 0 lf 998,3 hPa 0,0 l/m 0 min 0 min 26 W/m 45,1 km/h (6 Bft) 97,87 %
31.12.2017 15:14 14,2 C 13,9 C 12,2 C 77 % 0 lf 998,1 hPa 0,0 l/m 0 min 0 min 25 W/m 36,0 km/h (5 Bft) 95,74 %
31.12.2017 15:16 14,1 C 13,9 C 12,2 C 77 % 0 lf 998,2 hPa 0,0 l/m 0 min 0 min 20 W/m 33,8 km/h (5 Bft) 95,65 %
31.12.2017 15:18 14,1 C 13,9 C 12,2 C 77 % 0 lf 998,2 hPa 0,0 l/m 0 min 0 min 20 W/m 33,8 km/h (5 Bft) 100,00 %
31.12.2017 15:20 14,1 C 13,9 C 12,2 C 77 % 0 lf 998,1 hPa 0,0 l/m 0 min 0 min 17 W/m 29,3 km/h (5 Bft) 94,92 %
31.12.2017 15:22 14,1 C 13,9 C 12,2 C 77 % 0 lf 998,1 hPa 0,0 l/m 0 min 0 min 14 W/m 42,8 km/h (6 Bft) 97,87 %
31.12.2017 15:24 14,1 C 13,9 C 12,2 C 77 % 0 lf 998,3 hPa 0,0 l/m 0 min 0 min 12 W/m 33,8 km/h (5 Bft) 94,29 %
31.12.2017 15:26 14,1 C 13,9 C 12,2 C 77 % 0 lf 998,1 hPa 0,0 l/m 0 min 0 min 11 W/m 36,0 km/h (5 Bft) 93,62 %
31.12.2017 15:28 14,1 C 13,9 C 12,2 C 77 % 0 lf 998,0 hPa 0,0 l/m 0 min 0 min 11 W/m 36,0 km/h (5 Bft) 98,28 %
31.12.2017 15:30 14,0 C 13,9 C 12,2 C 77 % 0 lf 998,2 hPa 0,0 l/m 0 min 0 min 9 W/m 38,3 km/h (5 Bft) 97,87 %
31.12.2017 15:32 14,1 C 13,9 C 12,2 C 77 % 0 lf 998,0 hPa 0,0 l/m 0 min 0 min 9 W/m 38,3 km/h (5 Bft) 97,14 %
31.12.2017 15:34 14,0 C 13,9 C 12,2 C 77 % 0 lf 998,1 hPa 0,0 l/m 0 min 0 min 9 W/m 31,5 km/h (5 Bft) 98,31 %
31.12.2017 15:36 14,0 C 13,9 C 12,2 C 77 % 0 lf 998,1 hPa 0,0 l/m 0 min 0 min 9 W/m 27,0 km/h (4 Bft) 94,29 %
31.12.2017 15:38 14,0 C 13,9 C 12,2 C 77 % 0 lf 998,1 hPa 0,0 l/m 0 min 0 min 9 W/m 38,3 km/h (5 Bft) 100,00 %
31.12.2017 15:40 14,0 C 13,9 C 12,2 C 78 % 0 lf 998,0 hPa 0,0 l/m 0 min 0 min 9 W/m 27,0 km/h (4 Bft) 98,28 %
31.12.2017 15:42 14,0 C 13,9 C 12,2 C 78 % 0 lf 998,0 hPa 0,0 l/m 0 min 0 min 9 W/m 24,8 km/h (4 Bft) 97,87 %
31.12.2017 15:44 13,9 C 13,9 C 12,2 C 78 % 0 lf 998,0 hPa 0,0 l/m 0 min 0 min 12 W/m 33,8 km/h (5 Bft) 97,14 %
31.12.2017 15:46 13,9 C 13,9 C 12,2 C 78 % 0 lf 998,0 hPa 0,0 l/m 0 min 0 min 11 W/m 36,0 km/h (5 Bft) 100,00 %
31.12.2017 15:48 13,9 C 13,9 C 12,2 C 78 % 0 lf 997,9 hPa 0,0 l/m 0 min 0 min 10 W/m 31,5 km/h (5 Bft) 96,61 %
31.12.2017 15:50 13,9 C 13,9 C 12,2 C 78 % 0 lf 997,9 hPa 0,0 l/m 0 min 0 min 9 W/m 24,8 km/h (4 Bft) 97,83 %
31.12.2017 15:52 13,9 C 13,9 C 12,2 C 78 % 0 lf 997,9 hPa 0,0 l/m 0 min 0 min 8 W/m 24,8 km/h (4 Bft) 97,87 %
31.12.2017 15:54 13,9 C 13,9 C 12,2 C 78 % 0 lf 997,9 hPa 0,0 l/m 0 min 0 min 7 W/m 38,3 km/h (5 Bft) 97,14 %
31.12.2017 15:56 13,9 C 13,9 C 12,2 C 78 % 0 lf 997,9 hPa 0,0 l/m 0 min 0 min 8 W/m 29,3 km/h (5 Bft) 96,61 %
31.12.2017 15:58 13,9 C 13,9 C 12,2 C 78 % 0 lf 997,9 hPa 0,0 l/m 0 min 0 min 9 W/m 24,8 km/h (4 Bft) 100,00 %
31.12.2017 16:00 13,9 C 13,9 C 12,2 C 78 % 0 lf 997,9 hPa 0,0 l/m 0 min 0 min 7 W/m 27,0 km/h (4 Bft) 96,61 %
31.12.2017 16:02 13,9 C 13,9 C 12,2 C 78 % 0 lf 997,9 hPa 0,0 l/m 0 min 0 min 5 W/m 45,1 km/h (6 Bft) 97,14 %
31.12.2017 16:04 13,9 C 13,9 C 12,2 C 78 % 0 lf 997,9 hPa 0,0 l/m 0 min 0 min 4 W/m 31,5 km/h (5 Bft) 93,48 %
31.12.2017 16:06 13,9 C 13,9 C 12,2 C 78 % 0 lf 997,9 hPa 0,0 l/m 0 min 0 min 0 W/m 36,0 km/h (5 Bft) 97,87 %
31.12.2017 16:08 13,9 C 13,9 C 12,2 C 78 % 0 lf 998,0 hPa 0,0 l/m 0 min 0 min 0 W/m 33,8 km/h (5 Bft) 95,74 %
31.12.2017 16:10 13,9 C 13,9 C 12,2 C 78 % 0 lf 997,9 hPa 0,0 l/m 0 min 0 min 0 W/m 31,5 km/h (5 Bft) 97,87 %
31.12.2017 16:12 13,9 C 13,9 C 12,2 C 78 % 0 lf 998,0 hPa 0,0 l/m 0 min 0 min 0 W/m 33,8 km/h (5 Bft) 98,28 %
31.12.2017 16:14 13,8 C 13,3 C 12,2 C 78 % 0 lf 997,9 hPa 0,0 l/m 0 min 0 min 0 W/m 27,0 km/h (4 Bft) 95,74 %
31.12.2017 16:16 13,8 C 13,3 C 11,7 C 78 % 0 lf 997,9 hPa 0,0 l/m 0 min 0 min 0 W/m 27,0 km/h (4 Bft) 100,00 %
31.12.2017 16:18 13,8 C 13,3 C 12,2 C 78 % 0 lf 997,8 hPa 0,0 l/m 0 min 0 min 0 W/m 29,3 km/h (5 Bft) 94,92 %
31.12.2017 16:20 13,8 C 13,9 C 12,2 C 78 % 0 lf 997,9 hPa 0,0 l/m 0 min 0 min 0 W/m 42,8 km/h (6 Bft) 97,87 %
31.12.2017 16:22 13,8 C 13,9 C 12,2 C 78 % 0 lf 997,8 hPa 0,0 l/m 0 min 0 min 0 W/m 36,0 km/h (5 Bft) 95,74 %
31.12.2017 16:24 13,8 C 13,3 C 12,2 C 78 % 0 lf 997,8 hPa 0,0 l/m 0 min 0 min 0 W/m 29,3 km/h (5 Bft) 97,83 %
31.12.2017 16:26 13,8 C 13,9 C 12,2 C 78 % 0 lf 997,8 hPa 0,0 l/m 0 min 0 min 0 W/m 29,3 km/h (5 Bft) 94,44 %
31.12.2017 16:28 13,8 C 13,9 C 12,2 C 78 % 0 lf 997,7 hPa 0,0 l/m 0 min 0 min 0 W/m 31,5 km/h (5 Bft) 94,83 %
31.12.2017 16:30 13,8 C 13,3 C 12,2 C 78 % 0 lf 997,7 hPa 0,0 l/m 0 min 0 min 0 W/m 29,3 km/h (5 Bft) 94,29 %
31.12.2017 16:32 13,8 C 13,3 C 12,2 C 78 % 0 lf 997,7 hPa 0,0 l/m 0 min 0 min 0 W/m 24,8 km/h (4 Bft) 97,87 %
31.12.2017 16:34 13,8 C 13,3 C 12,2 C 78 % 0 lf 997,6 hPa 0,0 l/m 0 min 0 min 0 W/m 42,8 km/h (6 Bft) 96,61 %
31.12.2017 16:36 13,8 C 13,3 C 12,2 C 78 % 0 lf 997,6 hPa 0,0 l/m 0 min 0 min 0 W/m 33,8 km/h (5 Bft) 97,14 %
31.12.2017 16:38 13,8 C 13,3 C 12,2 C 78 % 0 lf 997,6 hPa 0,0 l/m 0 min 0 min 0 W/m 36,0 km/h (5 Bft) 98,28 %
31.12.2017 16:40 13,8 C 13,9 C 12,2 C 78 % 1 lf 997,6 hPa 0,0 l/m 0 min 0 min 0 W/m 33,8 km/h (5 Bft) 97,87 %
31.12.2017 16:42 13,8 C 13,3 C 12,2 C 78 % 0 lf 997,6 hPa 0,0 l/m 0 min 0 min 0 W/m 27,0 km/h (4 Bft) 97,14 %
31.12.2017 16:44 13,8 C 13,3 C 11,7 C 78 % 0 lf 997,6 hPa 0,0 l/m 0 min 0 min 0 W/m 38,3 km/h (5 Bft) 98,31 %
31.12.2017 16:46 13,8 C 13,3 C 12,2 C 78 % 0 lf 997,5 hPa 0,0 l/m 0 min 0 min 0 W/m 33,8 km/h (5 Bft) 93,62 %
31.12.2017 16:48 13,8 C 13,3 C 11,7 C 78 % 0 lf 997,5 hPa 0,0 l/m 0 min 0 min 0 W/m 24,8 km/h (4 Bft) 97,83 %
31.12.2017 16:50 13,8 C 13,3 C 12,2 C 78 % 0 lf 997,5 hPa 0,0 l/m 0 min 0 min 0 W/m 40,6 km/h (6 Bft) 93,62 %
31.12.2017 16:52 13,8 C 13,3 C 12,2 C 79 % 0 lf 997,4 hPa 0,0 l/m 0 min 0 min 0 W/m 29,3 km/h (5 Bft) 97,87 %
31.12.2017 16:54 13,8 C 13,3 C 11,7 C 79 % 0 lf 997,4 hPa 0,0 l/m 0 min 0 min 0 W/m 24,8 km/h (4 Bft) 97,87 %
31.12.2017 16:56 13,8 C 13,3 C 11,7 C 79 % 0 lf 997,4 hPa 0,0 l/m 0 min 0 min 0 W/m 33,8 km/h (5 Bft) 97,14 %
31.12.2017 16:58 13,8 C 13,3 C 11,7 C 79 % 0 lf 997,5 hPa 0,0 l/m 0 min 0 min 0 W/m 27,0 km/h (4 Bft) 95,74 %
31.12.2017 17:00 13,8 C 13,3 C 11,7 C 79 % 0 lf 997,5 hPa 0,0 l/m 0 min 0 min 0 W/m 27,0 km/h (4 Bft) 98,28 %
31.12.2017 17:02 13,8 C 13,3 C 11,7 C 79 % 0 lf 997,5 hPa 0,0 l/m 0 min 0 min 0 W/m 31,5 km/h (5 Bft) 97,14 %
31.12.2017 17:04 13,8 C 13,9 C 12,2 C 79 % 0 lf 997,5 hPa 0,0 l/m 0 min 0 min 0 W/m 38,3 km/h (5 Bft) 98,31 %
31.12.2017 17:06 13,8 C 13,3 C 12,2 C 79 % 0 lf 997,4 hPa 0,0 l/m 0 min 0 min 0 W/m 27,0 km/h (4 Bft) 97,87 %
31.12.2017 17:08 13,8 C 13,3 C 11,7 C 79 % 1 lf 997,3 hPa 0,0 l/m 0 min 2 min 0 W/m 33,8 km/h (5 Bft) 91,43 %
31.12.2017 17:10 13,8 C 13,3 C 11,7 C 79 % 0 lf 997,4 hPa 0,0 l/m 0 min 2 min 0 W/m 36,0 km/h (5 Bft) 98,31 %
31.12.2017 17:12 13,8 C 13,3 C 11,7 C 79 % 2 lf 997,4 hPa 0,0 l/m 0 min 2 min 0 W/m 36,0 km/h (5 Bft) 100,00 %
31.12.2017 17:14 13,8 C 12,8 C 11,1 C 79 % 0 lf 997,3 hPa 0,0 l/m 0 min 2 min 0 W/m 27,0 km/h (4 Bft) 100,00 %
31.12.2017 17:16 13,7 C 12,8 C 11,1 C 79 % 1 lf 997,4 hPa 0,0 l/m 0 min 2 min 0 W/m 31,5 km/h (5 Bft) 100,00 %
31.12.2017 17:18 13,7 C 12,8 C 10,6 C 80 % 3 lf 997,3 hPa 0,0 l/m 0 min 2 min 0 W/m 29,3 km/h (5 Bft) 98,31 %
31.12.2017 17:20 13,7 C 12,8 C 10,6 C 80 % 4 lf 997,3 hPa 0,0 l/m 0 min 2 min 0 W/m 36,0 km/h (5 Bft) 97,14 %
31.12.2017 17:22 13,7 C 12,2 C 10,6 C 80 % 2 lf 997,2 hPa 0,0 l/m 0 min 2 min 0 W/m 31,5 km/h (5 Bft) 97,87 %
31.12.2017 17:24 13,7 C 12,2 C 10,6 C 80 % 2 lf 997,2 hPa 0,0 l/m 0 min 2 min 0 W/m 31,5 km/h (5 Bft) 97,87 %
31.12.2017 17:26 13,6 C 12,2 C 10,6 C 80 % 1 lf 997,2 hPa 0,0 l/m 0 min 2 min 0 W/m 40,6 km/h (6 Bft) 95,65 %
31.12.2017 17:28 13,6 C 12,8 C 10,6 C 80 % 1 lf 997,2 hPa 0,0 l/m 0 min 2 min 0 W/m 38,3 km/h (5 Bft) 95,74 %
31.12.2017 17:30 13,6 C 12,2 C 10,6 C 80 % 2 lf 997,1 hPa 0,0 l/m 0 min 2 min 0 W/m 36,0 km/h (5 Bft) 97,87 %
31.12.2017 17:32 13,6 C 12,2 C 10,6 C 81 % 1 lf 997,1 hPa 0,0 l/m 0 min 2 min 0 W/m 22,5 km/h (4 Bft) 97,87 %
31.12.2017 17:34 13,5 C 12,2 C 10,6 C 81 % 1 lf 997,1 hPa 0,0 l/m 0 min 2 min 0 W/m 33,8 km/h (5 Bft) 97,87 %
31.12.2017 17:36 13,5 C 12,2 C 10,6 C 81 % 4 lf 997,0 hPa 0,0 l/m 0 min 2 min 0 W/m 40,6 km/h (6 Bft) 93,62 %
31.12.2017 17:38 13,5 C 12,2 C 10,6 C 81 % 3 lf 997,0 hPa 0,0 l/m 0 min 2 min 0 W/m 36,0 km/h (5 Bft) 95,65 %
31.12.2017 17:40 13,4 C 11,7 C 10,0 C 82 % 9 lf 997,0 hPa 0,0 l/m 0 min 2 min 0 W/m 22,5 km/h (4 Bft) 93,62 %
31.12.2017 17:42 13,4 C 11,1 C 10,0 C 82 % 7 lf 997,0 hPa 0,0 l/m 0 min 2 min 0 W/m 31,5 km/h (5 Bft) 91,49 %
31.12.2017 17:44 13,3 C 11,1 C 10,0 C 82 % 3 lf 997,0 hPa 0,0 l/m 0 min 2 min 0 W/m 40,6 km/h (6 Bft) 95,74 %
31.12.2017 17:46 13,3 C 11,1 C 10,0 C 82 % 4 lf 997,0 hPa 0,0 l/m 0 min 2 min 0 W/m 31,5 km/h (5 Bft) 95,74 %
31.12.2017 17:48 13,3 C 11,1 C 10,0 C 82 % 4 lf 997,0 hPa 0,0 l/m 0 min 2 min 0 W/m 22,5 km/h (4 Bft) 95,74 %
31.12.2017 17:50 13,3 C 11,1 C 10,0 C 83 % 7 lf 997,0 hPa 0,0 l/m 0 min 2 min 0 W/m 38,3 km/h (5 Bft) 93,48 %
31.12.2017 17:52 13,2 C 11,1 C 10,0 C 83 % 7 lf 997,0 hPa 0,0 l/m 0 min 2 min 0 W/m 36,0 km/h (5 Bft) 95,74 %
31.12.2017 17:54 13,2 C 11,1 C 10,0 C 83 % 7 lf 997,0 hPa 0,0 l/m 0 min 2 min 0 W/m 24,8 km/h (4 Bft) 95,74 %
31.12.2017 17:56 13,1 C 11,1 C 10,0 C 83 % 5 lf 997,0 hPa 0,0 l/m 0 min 2 min 0 W/m 40,6 km/h (6 Bft) 93,62 %
31.12.2017 17:58 13,1 C 10,6 C 10,0 C 83 % 8 lf 997,0 hPa 0,0 l/m 0 min 2 min 0 W/m 33,8 km/h (5 Bft) 89,36 %
31.12.2017 18:00 13,1 C 10,6 C 9,4 C 84 % 12 lf 996,9 hPa 0,0 l/m 0 min 2 min 0 W/m 24,8 km/h (4 Bft) 95,74 %
31.12.2017 18:02 13,1 C 10,6 C 9,4 C 84 % 13 lf 997,0 hPa 0,2 l/m 0 min 2 min 0 W/m 33,8 km/h (5 Bft) 93,48 %
31.12.2017 18:04 13,0 C 10,6 C 9,4 C 84 % 13 lf 997,0 hPa 0,0 l/m 0 min 2 min 0 W/m 18,0 km/h (3 Bft) 95,74 %
31.12.2017 18:06 12,9 C 10,6 C 9,4 C 85 % 12 lf 997,0 hPa 0,0 l/m 0 min 2 min 0 W/m 33,8 km/h (5 Bft) 95,74 %
31.12.2017 18:10 12,8 C 11,1 C 9,4 C 85 % 8 lf 996,8 hPa 0,0 l/m 0 min 4 min 0 W/m 36,0 km/h (5 Bft) 95,05 %
31.12.2017 18:12 12,8 C 11,1 C 9,4 C 85 % 6 lf 996,9 hPa 0,0 l/m 0 min 2 min 0 W/m 36,0 km/h (5 Bft) 95,74 %
31.12.2017 18:14 12,8 C 11,1 C 9,4 C 85 % 13 lf 996,9 hPa 0,0 l/m 0 min 2 min 0 W/m 24,8 km/h (4 Bft) 95,65 %
31.12.2017 18:16 12,7 C 11,1 C 9,4 C 85 % 14 lf 996,8 hPa 0,0 l/m 0 min 2 min 0 W/m 31,5 km/h (5 Bft) 93,62 %
31.12.2017 18:18 12,7 C 11,1 C 9,4 C 85 % 14 lf 996,9 hPa 0,0 l/m 0 min 2 min 0 W/m 36,0 km/h (5 Bft) 93,62 %
31.12.2017 18:20 12,7 C 11,1 C 9,4 C 85 % 15 lf 996,9 hPa 0,0 l/m 0 min 2 min 0 W/m 29,3 km/h (5 Bft) 95,74 %
31.12.2017 18:22 12,7 C 11,7 C 9,4 C 86 % 15 lf 996,9 hPa 0,0 l/m 0 min 2 min 0 W/m 31,5 km/h (5 Bft) 95,74 %
31.12.2017 18:24 12,7 C 11,7 C 9,4 C 85 % 15 lf 996,8 hPa 0,0 l/m 0 min 2 min 0 W/m 36,0 km/h (5 Bft) 91,30 %
31.12.2017 18:26 12,7 C 11,1 C 9,4 C 85 % 14 lf 996,8 hPa 0,0 l/m 0 min 2 min 0 W/m 38,3 km/h (5 Bft) 97,87 %
31.12.2017 18:28 12,7 C 10,6 C 9,4 C 85 % 15 lf 996,8 hPa 0,0 l/m 0 min 2 min 0 W/m 24,8 km/h (4 Bft) 100,00 %
31.12.2017 18:30 12,6 C 10,6 C 9,4 C 86 % 15 lf 996,8 hPa 0,2 l/m 0 min 2 min 0 W/m 24,8 km/h (4 Bft) 97,87 %
31.12.2017 18:32 12,6 C 10,6 C 9,4 C 86 % 15 lf 996,7 hPa 0,0 l/m 0 min 2 min 0 W/m 31,5 km/h (5 Bft) 89,36 %
31.12.2017 18:34 12,6 C 10,6 C 9,4 C 86 % 15 lf 996,9 hPa 0,0 l/m 0 min 2 min 0 W/m 36,0 km/h (5 Bft) 95,74 %
31.12.2017 18:36 12,5 C 10,6 C 9,4 C 86 % 15 lf 996,7 hPa 0,0 l/m 0 min 2 min 0 W/m 29,3 km/h (5 Bft) 97,83 %
31.12.2017 18:38 12,5 C 10,6 C 9,4 C 86 % 15 lf 996,8 hPa 0,0 l/m 0 min 2 min 0 W/m 36,0 km/h (5 Bft) 97,87 %
31.12.2017 18:40 12,4 C 10,6 C 9,4 C 87 % 15 lf 996,7 hPa 0,0 l/m 0 min 2 min 0 W/m 33,8 km/h (5 Bft) 95,74 %
31.12.2017 18:42 12,4 C 10,6 C 9,4 C 87 % 15 lf 996,7 hPa 0,0 l/m 0 min 2 min 0 W/m 22,5 km/h (4 Bft) 97,87 %
31.12.2017 18:44 12,4 C 10,6 C 9,4 C 87 % 15 lf 996,7 hPa 0,0 l/m 0 min 2 min 0 W/m 22,5 km/h (4 Bft) 93,62 %
31.12.2017 18:46 12,3 C 10,6 C 9,4 C 87 % 15 lf 996,7 hPa 0,0 l/m 0 min 2 min 0 W/m 29,3 km/h (5 Bft) 95,74 %
31.12.2017 18:48 12,3 C 10,6 C 9,4 C 87 % 15 lf 996,6 hPa 0,0 l/m 0 min 2 min 0 W/m 29,3 km/h (5 Bft) 93,48 %
31.12.2017 18:50 12,3 C 10,6 C 9,4 C 87 % 15 lf 996,5 hPa 0,0 l/m 0 min 2 min 0 W/m 22,5 km/h (4 Bft) 95,74 %
31.12.2017 18:52 12,3 C 10,6 C 9,4 C 87 % 14 lf 996,6 hPa 0,0 l/m 0 min 2 min 0 W/m 36,0 km/h (5 Bft) 91,49 %
31.12.2017 18:54 12,2 C 10,6 C 9,4 C 88 % 14 lf 996,5 hPa 0,0 l/m 0 min 2 min 0 W/m 31,5 km/h (5 Bft) 93,62 %
31.12.2017 18:56 12,2 C 10,6 C 9,4 C 88 % 14 lf 996,4 hPa 0,0 l/m 0 min 2 min 0 W/m 22,5 km/h (4 Bft) 95,74 %
31.12.2017 18:58 12,2 C 10,0 C 9,4 C 88 % 14 lf 996,4 hPa 0,0 l/m 0 min 2 min 0 W/m 27,0 km/h (4 Bft) 93,62 %
31.12.2017 19:00 12,2 C 10,6 C 9,4 C 88 % 14 lf 996,4 hPa 0,0 l/m 0 min 2 min 0 W/m 29,3 km/h (5 Bft) 93,48 %
31.12.2017 19:02 12,2 C 10,6 C 9,4 C 88 % 13 lf 996,4 hPa 0,0 l/m 0 min 2 min 0 W/m 29,3 km/h (5 Bft) 93,62 %
31.12.2017 19:04 12,1 C 10,6 C 9,4 C 88 % 13 lf 996,4 hPa 0,0 l/m 0 min 2 min 0 W/m 18,0 km/h (3 Bft) 95,74 %
31.12.2017 19:06 12,1 C 10,6 C 9,4 C 88 % 12 lf 996,3 hPa 0,0 l/m 0 min 2 min 0 W/m 29,3 km/h (5 Bft) 97,87 %
31.12.2017 19:08 12,1 C 10,6 C 9,4 C 88 % 12 lf 996,4 hPa 0,0 l/m 0 min 2 min 0 W/m 29,3 km/h (5 Bft) 93,62 %
31.12.2017 19:10 12,1 C 10,6 C 9,4 C 88 % 11 lf 996,3 hPa 0,0 l/m 0 min 2 min 0 W/m 20,3 km/h (4 Bft) 91,49 %
31.12.2017 19:12 12,1 C 10,6 C 9,4 C 88 % 9 lf 996,3 hPa 0,0 l/m 0 min 2 min 0 W/m 24,8 km/h (4 Bft) 95,65 %
31.12.2017 19:14 12,1 C 10,6 C 9,4 C 88 % 7 lf 996,2 hPa 0,0 l/m 0 min 2 min 0 W/m 27,0 km/h (4 Bft) 97,87 %
31.12.2017 19:16 12,0 C 10,6 C 9,4 C 88 % 5 lf 996,2 hPa 0,0 l/m 0 min 2 min 0 W/m 22,5 km/h (4 Bft) 97,87 %
31.12.2017 19:18 12,0 C 10,6 C 9,4 C 88 % 4 lf 996,1 hPa 0,0 l/m 0 min 0 min 0 W/m 18,0 km/h (3 Bft) 93,62 %
31.12.2017 19:20 12,0 C 10,6 C 9,4 C 89 % 3 lf 996,1 hPa 0,0 l/m 0 min 0 min 0 W/m 27,0 km/h (4 Bft) 95,74 %
31.12.2017 19:22 12,0 C 10,6 C 9,4 C 89 % 2 lf 996,0 hPa 0,0 l/m 0 min 0 min 0 W/m 22,5 km/h (4 Bft) 93,62 %
31.12.2017 19:24 11,9 C 10,6 C 9,4 C 89 % 1 lf 996,1 hPa 0,0 l/m 0 min 2 min 0 W/m 27,0 km/h (4 Bft) 97,83 %
31.12.2017 19:26 11,9 C 10,6 C 9,4 C 89 % 0 lf 996,0 hPa 0,0 l/m 0 min 0 min 0 W/m 20,3 km/h (4 Bft) 93,62 %
31.12.2017 19:28 11,9 C 10,6 C 9,4 C 88 % 0 lf 996,0 hPa 0,0 l/m 0 min 0 min 0 W/m 20,3 km/h (4 Bft) 97,87 %
31.12.2017 19:30 11,9 C 10,6 C 9,4 C 88 % 2 lf 996,0 hPa 0,0 l/m 0 min 0 min 0 W/m 15,8 km/h (3 Bft) 97,87 %
31.12.2017 19:32 11,9 C 11,1 C 9,4 C 88 % 1 lf 996,0 hPa 0,0 l/m 0 min 2 min 0 W/m 27,0 km/h (4 Bft) 95,74 %
31.12.2017 19:34 12,0 C 11,1 C 9,4 C 88 % 2 lf 995,9 hPa 0,0 l/m 0 min 2 min 0 W/m 36,0 km/h (5 Bft) 100,00 %
31.12.2017 19:36 12,0 C 11,1 C 9,4 C 88 % 1 lf 995,9 hPa 0,2 l/m 0 min 2 min 0 W/m 27,0 km/h (4 Bft) 97,83 %
31.12.2017 19:38 12,1 C 11,1 C 9,4 C 88 % 1 lf 995,8 hPa 0,0 l/m 0 min 2 min 0 W/m 31,5 km/h (5 Bft) 100,00 %
31.12.2017 19:40 12,1 C 11,1 C 9,4 C 87 % 1 lf 995,7 hPa 0,0 l/m 0 min 2 min 0 W/m 38,3 km/h (5 Bft) 100,00 %
31.12.2017 19:42 12,1 C 11,1 C 9,4 C 87 % 0 lf 995,8 hPa 0,0 l/m 0 min 2 min 0 W/m 42,8 km/h (6 Bft) 97,87 %
31.12.2017 19:44 12,2 C 11,1 C 9,4 C 87 % 0 lf 995,8 hPa 0,0 l/m 0 min 2 min 0 W/m 45,1 km/h (6 Bft) 100,00 %
31.12.2017 19:46 12,3 C 11,1 C 9,4 C 86 % 0 lf 995,6 hPa 0,0 l/m 0 min 2 min 0 W/m 38,3 km/h (5 Bft) 100,00 %
31.12.2017 19:48 12,3 C 11,1 C 9,4 C 86 % 0 lf 995,5 hPa 0,0 l/m 0 min 2 min 0 W/m 29,3 km/h (5 Bft) 100,00 %
31.12.2017 19:50 12,3 C 11,1 C 9,4 C 86 % 0 lf 995,5 hPa 0,0 l/m 0 min 0 min 0 W/m 24,8 km/h (4 Bft) 100,00 %
31.12.2017 19:52 12,4 C 11,1 C 9,4 C 86 % 0 lf 995,5 hPa 0,0 l/m 0 min 2 min 0 W/m 42,8 km/h (6 Bft) 100,00 %
31.12.2017 19:54 12,4 C 11,7 C 9,4 C 85 % 0 lf 995,4 hPa 0,0 l/m 0 min 2 min 0 W/m 40,6 km/h (6 Bft) 95,74 %
31.12.2017 19:56 12,4 C 11,7 C 9,4 C 85 % 0 lf 995,4 hPa 0,0 l/m 0 min 2 min 0 W/m 22,5 km/h (4 Bft) 95,74 %
31.12.2017 19:58 12,4 C 12,2 C 9,4 C 85 % 0 lf 995,3 hPa 0,0 l/m 0 min 2 min 0 W/m 42,8 km/h (6 Bft) 100,00 %
31.12.2017 20:00 12,5 C 12,2 C 9,4 C 85 % 1 lf 995,3 hPa 0,0 l/m 0 min 2 min 0 W/m 38,3 km/h (5 Bft) 97,87 %
31.12.2017 20:02 12,5 C 12,2 C 9,4 C 84 % 0 lf 995,3 hPa 0,0 l/m 0 min 2 min 0 W/m 33,8 km/h (5 Bft) 93,62 %
31.12.2017 20:04 12,6 C 12,2 C 9,4 C 84 % 3 lf 995,5 hPa 0,0 l/m 0 min 2 min 0 W/m 45,1 km/h (6 Bft) 100,00 %
31.12.2017 20:06 12,6 C 10,6 C 9,4 C 84 % 15 lf 996,0 hPa 0,2 l/m 0 min 2 min 0 W/m 60,8 km/h (7 Bft) 100,00 %
31.12.2017 20:08 12,6 C 10,0 C 8,9 C 85 % 15 lf 996,2 hPa 0,2 l/m 0 min 2 min 0 W/m 60,8 km/h (7 Bft) 95,74 %
31.12.2017 20:10 12,4 C 9,4 C 8,9 C 85 % 15 lf 996,4 hPa 0,2 l/m 0 min 2 min 0 W/m 54,1 km/h (7 Bft) 96,08 %
31.12.2017 20:12 12,2 C 9,4 C 8,3 C 85 % 15 lf 996,4 hPa 0,0 l/m 0 min 2 min 0 W/m 42,8 km/h (6 Bft) 97,87 %
31.12.2017 20:14 11,9 C 9,4 C 8,3 C 86 % 15 lf 996,4 hPa 0,2 l/m 0 min 2 min 0 W/m 45,1 km/h (6 Bft) 93,62 %
31.12.2017 20:16 11,7 C 9,4 C 8,3 C 86 % 15 lf 996,5 hPa 0,0 l/m 0 min 2 min 0 W/m 42,8 km/h (6 Bft) 93,62 %
31.12.2017 20:18 11,5 C 8,9 C 8,3 C 87 % 15 lf 996,5 hPa 0,2 l/m 0 min 2 min 0 W/m 51,8 km/h (7 Bft) 97,83 %
31.12.2017 20:20 11,3 C 8,9 C 8,3 C 87 % 15 lf 996,6 hPa 0,0 l/m 0 min 2 min 0 W/m 47,3 km/h (6 Bft) 95,74 %
31.12.2017 20:22 11,1 C 8,9 C 8,3 C 88 % 15 lf 996,6 hPa 0,0 l/m 0 min 2 min 0 W/m 51,8 km/h (7 Bft) 91,49 %
31.12.2017 20:24 10,9 C 8,9 C 8,3 C 89 % 15 lf 996,5 hPa 0,0 l/m 0 min 2 min 0 W/m 49,6 km/h (6 Bft) 97,87 %
31.12.2017 20:26 10,8 C 8,9 C 8,3 C 89 % 15 lf 996,6 hPa 0,2 l/m 0 min 2 min 0 W/m 33,8 km/h (5 Bft) 93,62 %
31.12.2017 20:28 10,7 C 8,9 C 8,3 C 90 % 15 lf 996,7 hPa 0,0 l/m 0 min 2 min 0 W/m 60,8 km/h (7 Bft) 95,74 %
31.12.2017 20:30 10,6 C 8,9 C 7,8 C 90 % 15 lf 996,7 hPa 0,0 l/m 0 min 2 min 0 W/m 45,1 km/h (6 Bft) 91,30 %
31.12.2017 20:32 10,5 C 8,9 C 7,8 C 90 % 15 lf 996,7 hPa 0,2 l/m 0 min 2 min 0 W/m 29,3 km/h (5 Bft) 93,62 %
31.12.2017 20:34 10,4 C 8,9 C 7,8 C 91 % 15 lf 996,6 hPa 0,0 l/m 0 min 2 min 0 W/m 31,5 km/h (5 Bft) 95,74 %
31.12.2017 20:36 10,3 C 8,9 C 7,8 C 91 % 15 lf 996,6 hPa 0,0 l/m 0 min 2 min 0 W/m 36,0 km/h (5 Bft) 97,87 %
31.12.2017 20:38 10,3 C 8,9 C 7,8 C 91 % 15 lf 996,5 hPa 0,2 l/m 0 min 2 min 0 W/m 31,5 km/h (5 Bft) 95,74 %
31.12.2017 20:40 10,2 C 8,9 C 7,8 C 92 % 15 lf 996,5 hPa 0,0 l/m 0 min 2 min 0 W/m 33,8 km/h (5 Bft) 95,74 %
31.12.2017 20:42 10,1 C 8,9 C 7,8 C 92 % 15 lf 996,6 hPa 0,0 l/m 0 min 2 min 0 W/m 36,0 km/h (5 Bft) 93,48 %
31.12.2017 20:44 10,1 C 8,9 C 7,8 C 92 % 15 lf 996,7 hPa 0,0 l/m 0 min 2 min 0 W/m 36,0 km/h (5 Bft) 95,74 %
31.12.2017 20:46 10,0 C 8,9 C 7,8 C 92 % 15 lf 996,7 hPa 0,0 l/m 0 min 2 min 0 W/m 42,8 km/h (6 Bft) 93,62 %
31.12.2017 20:48 9,9 C 8,9 C 7,8 C 92 % 15 lf 996,7 hPa 0,0 l/m 0 min 2 min 0 W/m 38,3 km/h (5 Bft) 93,62 %
31.12.2017 20:50 9,9 C 8,9 C 7,8 C 93 % 15 lf 996,7 hPa 0,0 l/m 0 min 2 min 0 W/m 36,0 km/h (5 Bft) 97,87 %
31.12.2017 20:52 9,9 C 8,9 C 7,8 C 93 % 15 lf 996,8 hPa 0,0 l/m 0 min 2 min 0 W/m 36,0 km/h (5 Bft) 97,87 %
31.12.2017 20:54 9,9 C 8,9 C 7,8 C 93 % 15 lf 996,8 hPa 0,0 l/m 0 min 2 min 0 W/m 33,8 km/h (5 Bft) 95,65 %
31.12.2017 20:56 9,8 C 8,9 C 7,8 C 93 % 15 lf 996,7 hPa 0,2 l/m 0 min 2 min 0 W/m 33,8 km/h (5 Bft) 100,00 %
31.12.2017 20:58 9,8 C 8,9 C 7,8 C 93 % 15 lf 996,9 hPa 0,0 l/m 0 min 2 min 0 W/m 31,5 km/h (5 Bft) 100,00 %
31.12.2017 21:00 9,8 C 8,9 C 7,8 C 93 % 15 lf 996,9 hPa 0,0 l/m 0 min 2 min 0 W/m 42,8 km/h (6 Bft) 95,74 %
31.12.2017 21:02 9,8 C 8,9 C 7,8 C 93 % 15 lf 996,8 hPa 0,0 l/m 0 min 2 min 0 W/m 33,8 km/h (5 Bft) 95,74 %
31.12.2017 21:04 9,8 C 8,9 C 7,8 C 94 % 15 lf 996,8 hPa 0,0 l/m 0 min 2 min 0 W/m 31,5 km/h (5 Bft) 100,00 %
31.12.2017 21:06 9,8 C 8,9 C 7,8 C 94 % 15 lf 996,8 hPa 0,0 l/m 0 min 2 min 0 W/m 31,5 km/h (5 Bft) 93,48 %
31.12.2017 21:08 9,7 C 8,9 C 7,8 C 94 % 15 lf 996,9 hPa 0,0 l/m 0 min 2 min 0 W/m 54,1 km/h (7 Bft) 95,74 %
31.12.2017 21:10 9,7 C 8,9 C 7,8 C 94 % 15 lf 996,9 hPa 0,0 l/m 0 min 2 min 0 W/m 40,6 km/h (6 Bft) 100,00 %
31.12.2017 21:12 9,7 C 8,9 C 7,8 C 94 % 15 lf 996,8 hPa 0,0 l/m 0 min 2 min 0 W/m 33,8 km/h (5 Bft) 97,87 %
31.12.2017 21:14 9,7 C 8,9 C 7,8 C 94 % 15 lf 996,8 hPa 0,0 l/m 0 min 2 min 0 W/m 40,6 km/h (6 Bft) 100,00 %
31.12.2017 21:16 9,7 C 8,9 C 7,8 C 94 % 15 lf 996,8 hPa 0,0 l/m 0 min 2 min 0 W/m 27,0 km/h (4 Bft) 97,83 %
31.12.2017 21:18 9,7 C 8,9 C 7,8 C 94 % 15 lf 996,8 hPa 0,0 l/m 0 min 2 min 0 W/m 36,0 km/h (5 Bft) 97,87 %
31.12.2017 21:20 9,7 C 8,9 C 7,8 C 94 % 15 lf 996,8 hPa 0,0 l/m 0 min 2 min 0 W/m 24,8 km/h (4 Bft) 95,74 %
31.12.2017 21:22 9,7 C 8,9 C 7,8 C 94 % 15 lf 996,8 hPa 0,0 l/m 0 min 0 min 0 W/m 36,0 km/h (5 Bft) 97,87 %
31.12.2017 21:24 9,7 C 8,3 C 7,8 C 94 % 15 lf 996,8 hPa 0,0 l/m 0 min 0 min 0 W/m 27,0 km/h (4 Bft) 93,62 %
31.12.2017 21:26 9,6 C 8,9 C 7,8 C 94 % 15 lf 996,9 hPa 0,0 l/m 0 min 2 min 0 W/m 36,0 km/h (5 Bft) 97,87 %
31.12.2017 21:28 9,6 C 8,9 C 7,8 C 94 % 15 lf 996,9 hPa 0,0 l/m 0 min 0 min 0 W/m 33,8 km/h (5 Bft) 97,87 %
31.12.2017 21:30 9,6 C 8,9 C 7,8 C 94 % 15 lf 996,9 hPa 0,0 l/m 0 min 2 min 0 W/m 33,8 km/h (5 Bft) 97,83 %
31.12.2017 21:32 9,6 C 8,9 C 7,8 C 94 % 15 lf 996,9 hPa 0,0 l/m 0 min 0 min 0 W/m 24,8 km/h (4 Bft) 97,87 %
31.12.2017 21:34 9,6 C 8,9 C 7,8 C 94 % 15 lf 996,9 hPa 0,0 l/m 0 min 0 min 0 W/m 29,3 km/h (5 Bft) 95,74 %
31.12.2017 21:36 9,6 C 8,9 C 7,8 C 94 % 15 lf 997,0 hPa 0,0 l/m 0 min 2 min 0 W/m 27,0 km/h (4 Bft) 95,74 %
31.12.2017 21:38 9,6 C 8,3 C 7,8 C 94 % 15 lf 996,9 hPa 0,0 l/m 0 min 0 min 0 W/m 22,5 km/h (4 Bft) 95,74 %
31.12.2017 21:40 9,6 C 8,3 C 7,8 C 94 % 15 lf 997,0 hPa 0,0 l/m 0 min 0 min 0 W/m 36,0 km/h (5 Bft) 95,65 %
31.12.2017 21:42 9,6 C 8,3 C 7,8 C 94 % 15 lf 997,0 hPa 0,0 l/m 0 min 0 min 0 W/m 33,8 km/h (5 Bft) 95,74 %
31.12.2017 21:44 9,5 C 8,3 C 7,8 C 94 % 15 lf 997,1 hPa 0,0 l/m 0 min 0 min 0 W/m 36,0 km/h (5 Bft) 95,74 %
31.12.2017 21:46 9,5 C 8,3 C 7,2 C 94 % 15 lf 997,1 hPa 0,0 l/m 0 min 0 min 0 W/m 18,0 km/h (3 Bft) 95,74 %
31.12.2017 21:48 9,5 C 8,3 C 7,2 C 94 % 15 lf 997,0 hPa 0,0 l/m 0 min 0 min 0 W/m 31,5 km/h (5 Bft) 95,74 %
31.12.2017 21:50 9,5 C 8,3 C 7,2 C 94 % 15 lf 997,0 hPa 0,0 l/m 0 min 0 min 0 W/m 29,3 km/h (5 Bft) 91,49 %
31.12.2017 21:52 9,4 C 8,3 C 7,2 C 94 % 15 lf 997,0 hPa 0,0 l/m 0 min 0 min 0 W/m 22,5 km/h (4 Bft) 95,74 %
31.12.2017 21:54 9,4 C 8,3 C 7,2 C 94 % 15 lf 997,1 hPa 0,0 l/m 0 min 0 min 0 W/m 31,5 km/h (5 Bft) 93,48 %
31.12.2017 21:56 9,4 C 8,3 C 7,2 C 94 % 15 lf 997,1 hPa 0,0 l/m 0 min 0 min 0 W/m 20,3 km/h (4 Bft) 93,62 %
31.12.2017 21:58 9,4 C 8,3 C 7,2 C 94 % 15 lf 997,1 hPa 0,0 l/m 0 min 0 min 0 W/m 27,0 km/h (4 Bft) 95,74 %
31.12.2017 22:00 9,4 C 8,3 C 7,2 C 94 % 15 lf 997,1 hPa 0,0 l/m 0 min 0 min 0 W/m 27,0 km/h (4 Bft) 93,62 %
31.12.2017 22:02 9,4 C 8,3 C 7,2 C 93 % 15 lf 997,1 hPa 0,0 l/m 0 min 0 min 0 W/m 33,8 km/h (5 Bft) 93,62 %
31.12.2017 22:04 9,3 C 8,3 C 7,2 C 94 % 15 lf 997,0 hPa 0,0 l/m 0 min 0 min 0 W/m 33,8 km/h (5 Bft) 95,65 %
31.12.2017 22:06 9,3 C 8,3 C 7,2 C 94 % 15 lf 997,1 hPa 0,0 l/m 0 min 0 min 0 W/m 24,8 km/h (4 Bft) 93,62 %
31.12.2017 22:08 9,3 C 8,3 C 7,2 C 93 % 15 lf 997,1 hPa 0,0 l/m 0 min 0 min 0 W/m 22,5 km/h (4 Bft) 93,62 %
31.12.2017 22:10 9,3 C 8,3 C 7,2 C 93 % 15 lf 997,1 hPa 0,0 l/m 0 min 0 min 0 W/m 18,0 km/h (3 Bft) 97,87 %
31.12.2017 22:12 9,3 C 8,3 C 7,2 C 93 % 14 lf 997,0 hPa 0,0 l/m 0 min 0 min 0 W/m 31,5 km/h (5 Bft) 95,74 %
31.12.2017 22:14 9,3 C 8,3 C 7,2 C 93 % 14 lf 997,0 hPa 0,0 l/m 0 min 0 min 0 W/m 38,3 km/h (5 Bft) 97,87 %
31.12.2017 22:16 9,3 C 8,3 C 7,2 C 93 % 14 lf 997,1 hPa 0,0 l/m 0 min 0 min 0 W/m 36,0 km/h (5 Bft) 93,48 %
31.12.2017 22:18 9,3 C 8,3 C 7,2 C 93 % 12 lf 997,1 hPa 0,0 l/m 0 min 0 min 0 W/m 29,3 km/h (5 Bft) 91,49 %
31.12.2017 22:20 9,3 C 8,3 C 7,2 C 93 % 11 lf 997,0 hPa 0,0 l/m 0 min 0 min 0 W/m 22,5 km/h (4 Bft) 93,75 %
31.12.2017 22:22 9,3 C 8,3 C 7,2 C 93 % 10 lf 997,1 hPa 0,0 l/m 0 min 0 min 0 W/m 29,3 km/h (5 Bft) 92,98 %
31.12.2017 22:24 9,2 C 8,3 C 7,2 C 93 % 9 lf 997,2 hPa 0,0 l/m 0 min 0 min 0 W/m 27,0 km/h (4 Bft) 91,49 %
31.12.2017 22:26 9,2 C 8,3 C 6,7 C 92 % 7 lf 997,1 hPa 0,0 l/m 0 min 0 min 0 W/m 27,0 km/h (4 Bft) 93,48 %
31.12.2017 22:28 9,2 C 8,3 C 6,7 C 92 % 6 lf 997,1 hPa 0,0 l/m 0 min 0 min 0 W/m 36,0 km/h (5 Bft) 95,74 %
31.12.2017 22:30 9,2 C 8,3 C 7,2 C 92 % 4 lf 997,1 hPa 0,0 l/m 0 min 0 min 0 W/m 36,0 km/h (5 Bft) 95,74 %
31.12.2017 22:32 9,2 C 8,3 C 7,2 C 92 % 4 lf 997,1 hPa 0,0 l/m 0 min 0 min 0 W/m 38,3 km/h (5 Bft) 97,87 %
31.12.2017 22:34 9,3 C 8,3 C 7,2 C 92 % 3 lf 997,0 hPa 0,0 l/m 0 min 0 min 0 W/m 29,3 km/h (5 Bft) 95,74 %
31.12.2017 22:36 9,3 C 8,3 C 7,2 C 92 % 2 lf 997,0 hPa 0,0 l/m 0 min 0 min 0 W/m 42,8 km/h (6 Bft) 93,62 %
31.12.2017 22:38 9,3 C 8,3 C 7,2 C 92 % 2 lf 996,9 hPa 0,0 l/m 0 min 0 min 0 W/m 36,0 km/h (5 Bft) 97,83 %
31.12.2017 22:40 9,3 C 8,3 C 7,2 C 92 % 1 lf 996,9 hPa 0,0 l/m 0 min 0 min 0 W/m 40,6 km/h (6 Bft) 100,00 %
31.12.2017 22:42 9,3 C 8,3 C 7,2 C 91 % 0 lf 997,0 hPa 0,0 l/m 0 min 0 min 0 W/m 56,3 km/h (7 Bft) 95,74 %
31.12.2017 22:44 9,3 C 8,3 C 7,2 C 91 % 0 lf 997,0 hPa 0,0 l/m 0 min 0 min 0 W/m 38,3 km/h (5 Bft) 95,74 %
31.12.2017 22:46 9,3 C 8,3 C 7,2 C 91 % 0 lf 997,0 hPa 0,0 l/m 0 min 0 min 0 W/m 40,6 km/h (6 Bft) 93,62 %
31.12.2017 22:48 9,3 C 8,3 C 7,2 C 91 % 0 lf 997,0 hPa 0,0 l/m 0 min 0 min 0 W/m 31,5 km/h (5 Bft) 97,87 %
31.12.2017 22:50 9,4 C 8,3 C 7,2 C 91 % 0 lf 997,0 hPa 0,0 l/m 0 min 0 min 0 W/m 42,8 km/h (6 Bft) 97,83 %
31.12.2017 22:52 9,4 C 8,3 C 7,2 C 91 % 0 lf 997,0 hPa 0,0 l/m 0 min 0 min 0 W/m 33,8 km/h (5 Bft) 97,87 %
31.12.2017 22:54 9,4 C 8,3 C 7,2 C 91 % 0 lf 997,0 hPa 0,0 l/m 0 min 0 min 0 W/m 29,3 km/h (5 Bft) 97,87 %
31.12.2017 22:56 9,4 C 8,3 C 7,2 C 91 % 0 lf 997,1 hPa 0,0 l/m 0 min 0 min 0 W/m 42,8 km/h (6 Bft) 96,15 %
31.12.2017 22:58 9,4 C 8,3 C 7,2 C 91 % 3 lf 997,2 hPa 0,0 l/m 0 min 0 min 0 W/m 45,1 km/h (6 Bft) 97,87 %
31.12.2017 23:00 9,4 C 8,3 C 7,2 C 91 % 14 lf 997,2 hPa 0,0 l/m 0 min 2 min 0 W/m 47,3 km/h (6 Bft) 97,83 %
31.12.2017 23:02 9,5 C 8,3 C 7,2 C 91 % 15 lf 997,2 hPa 0,0 l/m 0 min 2 min 0 W/m 42,8 km/h (6 Bft) 95,74 %
31.12.2017 23:04 9,5 C 8,3 C 7,2 C 91 % 15 lf 997,6 hPa 0,2 l/m 0 min 2 min 0 W/m 65,3 km/h (8 Bft) 95,74 %
31.12.2017 23:06 9,4 C 7,2 C 6,1 C 89 % 15 lf 997,5 hPa 0,0 l/m 0 min 2 min 0 W/m 65,3 km/h (8 Bft) 95,74 %
31.12.2017 23:08 9,3 C 7,2 C 6,1 C 88 % 15 lf 997,4 hPa 0,0 l/m 0 min 2 min 0 W/m 72,1 km/h (8 Bft) 97,87 %
31.12.2017 23:10 9,2 C 7,2 C 6,1 C 88 % 15 lf 997,5 hPa 0,0 l/m 0 min 2 min 0 W/m 54,1 km/h (7 Bft) 95,74 %
31.12.2017 23:12 9,1 C 7,2 C 6,1 C 87 % 15 lf 997,6 hPa 0,0 l/m 0 min 2 min 0 W/m 58,6 km/h (7 Bft) 95,65 %
31.12.2017 23:14 8,9 C 6,7 C 5,6 C 87 % 15 lf 997,7 hPa 0,0 l/m 0 min 2 min 0 W/m 63,1 km/h (8 Bft) 97,87 %
31.12.2017 23:16 8,8 C 6,7 C 5,6 C 87 % 15 lf 997,8 hPa 0,2 l/m 0 min 2 min 0 W/m 49,6 km/h (6 Bft) 97,87 %
31.12.2017 23:18 8,7 C 6,7 C 5,6 C 87 % 15 lf 997,8 hPa 0,0 l/m 0 min 2 min 0 W/m 60,8 km/h (7 Bft) 95,74 %
31.12.2017 23:20 8,6 C 6,7 C 5,6 C 87 % 15 lf 997,8 hPa 0,0 l/m 0 min 2 min 0 W/m 58,6 km/h (7 Bft) 97,87 %
31.12.2017 23:22 8,5 C 6,7 C 5,6 C 88 % 15 lf 997,9 hPa 0,0 l/m 0 min 2 min 0 W/m 54,1 km/h (7 Bft) 95,65 %
31.12.2017 23:24 8,4 C 6,7 C 6,1 C 88 % 15 lf 998,1 hPa 0,0 l/m 0 min 2 min 0 W/m 51,8 km/h (7 Bft) 97,87 %
31.12.2017 23:26 8,4 C 7,2 C 6,1 C 88 % 15 lf 998,1 hPa 0,0 l/m 0 min 2 min 0 W/m 54,1 km/h (7 Bft) 100,00 %
31.12.2017 23:28 8,4 C 7,2 C 6,1 C 88 % 15 lf 998,1 hPa 0,0 l/m 0 min 2 min 0 W/m 45,1 km/h (6 Bft) 100,00 %
31.12.2017 23:30 8,3 C 7,2 C 6,1 C 89 % 15 lf 998,0 hPa 0,0 l/m 0 min 2 min 0 W/m 49,6 km/h (6 Bft) 100,00 %
31.12.2017 23:32 8,3 C 6,7 C 5,6 C 89 % 15 lf 998,0 hPa 0,0 l/m 0 min 2 min 0 W/m 38,3 km/h (5 Bft) 100,00 %
31.12.2017 23:34 8,2 C 6,7 C 5,6 C 89 % 15 lf 998,1 hPa 0,0 l/m 0 min 2 min 0 W/m 54,1 km/h (7 Bft) 97,83 %
31.12.2017 23:36 8,2 C 6,7 C 5,6 C 89 % 15 lf 998,2 hPa 0,0 l/m 0 min 2 min 0 W/m 36,0 km/h (5 Bft) 97,87 %
31.12.2017 23:38 8,2 C 6,7 C 5,6 C 89 % 15 lf 998,1 hPa 0,0 l/m 0 min 2 min 0 W/m 42,8 km/h (6 Bft) 100,00 %
31.12.2017 23:40 8,1 C 6,7 C 5,6 C 89 % 15 lf 998,1 hPa 0,0 l/m 0 min 2 min 0 W/m 42,8 km/h (6 Bft) 100,00 %
31.12.2017 23:42 8,1 C 6,7 C 5,6 C 89 % 15 lf 998,1 hPa 0,0 l/m 0 min 2 min 0 W/m 36,0 km/h (5 Bft) 97,87 %
31.12.2017 23:44 8,1 C 6,7 C 5,6 C 90 % 15 lf 998,1 hPa 0,0 l/m 0 min 2 min 0 W/m 29,3 km/h (5 Bft) 100,00 %
31.12.2017 23:46 8,1 C 6,7 C 5,6 C 90 % 15 lf 998,0 hPa 0,0 l/m 0 min 2 min 0 W/m 38,3 km/h (5 Bft) 97,83 %
31.12.2017 23:48 8,0 C 6,7 C 5,6 C 90 % 15 lf 998,0 hPa 0,0 l/m 0 min 2 min 0 W/m 45,1 km/h (6 Bft) 97,87 %
31.12.2017 23:50 8,0 C 6,7 C 5,6 C 90 % 15 lf 997,9 hPa 0,0 l/m 0 min 2 min 0 W/m 31,5 km/h (5 Bft) 100,00 %
31.12.2017 23:52 7,9 C 6,7 C 5,6 C 90 % 15 lf 997,9 hPa 0,0 l/m 0 min 2 min 0 W/m 33,8 km/h (5 Bft) 95,74 %
31.12.2017 23:54 7,9 C 6,7 C 5,6 C 90 % 15 lf 997,8 hPa 0,0 l/m 0 min 2 min 0 W/m 38,3 km/h (5 Bft) 97,87 %
31.12.2017 23:56 7,9 C 6,7 C 5,6 C 90 % 15 lf 997,8 hPa 0,0 l/m 0 min 2 min 0 W/m 22,5 km/h (4 Bft) 100,00 %
31.12.2017 23:58 7,9 C 6,7 C 5,6 C 91 % 15 lf 997,8 hPa 0,0 l/m 0 min 0 min 0 W/m 18,0 km/h (3 Bft) 97,83 %
_ Min-Zeit 23:52 23:14 23:14 15:06 00:00 19:58 - - - - 03:38 12:36
Minimum _ 7,9 C 6,7 C 5,6 C 77 % 0 lf 995,3 hPa - - - - 9,0 km/h (2 Bft) 87,23 %
_ Max-Zeit 12:46 12:42 13:36 04:50 01:20 01:08 01:40 00:00 05:42 12:32 23:08 00:10
Maximum _ 14,2 C 15,0 C 13,3 C 98 % 15 lf 1003,9 hPa 0,2 l/m 0 min 5 min 139 W/m 72,1 km/h
W-NW (8 Bft)
100,00 %
Durchschnitt _ 12,1 C 11,5 C 10,0 C 88 % 7 lf 1000,1 hPa #7,2 l/m #0 min. #11:24 h 52 W/m 34,6 km/h (5 Bft) 96,33 %
© 2018 W. Hausmann